| time (UTC) | temp F | wind direction | speed MPH | gust MPH | rain 1hr in | rain 24hr in | rain mn in | humidity % | barometer mb |
| 20260904092520 | 73 | 251 | 2.0 | 2.0 | 0.00 | 0.01 | 0.01 | 89 | 1012.4 |
| 20260904092416 | 73 | 254 | 1.0 | 2.0 | 0.00 | 0.01 | 0.01 | 88 | 1012.5 |
| 20260904092328 | 73 | 240 | 2.0 | 2.0 | 0.00 | 0.01 | 0.01 | 88 | 1012.3 |
| 20260904092223 | 73 | 243 | 1.0 | 1.0 | 0.00 | 0.01 | 0.01 | 88 | 1012.4 |
| 20260904092119 | 73 | 243 | 1.0 | 2.0 | 0.00 | 0.01 | 0.01 | 88 | 1012.3 |
| 20260904092031 | 73 | 241 | 1.0 | 2.0 | 0.00 | 0.01 | 0.01 | 88 | 1012.2 |
| 20260904091926 | 73 | 243 | 1.0 | 2.0 | 0.00 | 0.01 | 0.01 | 88 | 1012.3 |
| 20260904091821 | 73 | 262 | 0.0 | 1.0 | 0.00 | 0.01 | 0.01 | 88 | 1012.2 |
| 20260904091717 | 73 | 262 | 0.0 | 1.0 | 0.00 | 0.01 | 0.01 | 88 | 1012.2 |
| 20260904091628 | 73 | 262 | 1.0 | 2.0 | 0.00 | 0.01 | 0.01 | 88 | 1012.3 |
| 20260904091524 | 73 | 262 | 1.0 | 1.0 | 0.00 | 0.01 | 0.01 | 88 | 1012.4 |
| 20260904091420 | 73 | 261 | 1.0 | 2.0 | 0.00 | 0.01 | 0.01 | 88 | 1012.5 |
| 20260904091315 | 73 | 261 | 1.0 | 1.0 | 0.00 | 0.01 | 0.01 | 88 | 1012.4 |
| 20260904091227 | 73 | 261 | 1.0 | 2.0 | 0.00 | 0.01 | 0.01 | 88 | 1012.4 |
| 20260904091122 | 73 | 240 | 2.0 | 2.0 | 0.00 | 0.01 | 0.01 | 88 | 1012.5 |
| 20260904091018 | 73 | 228 | 1.0 | 2.0 | 0.00 | 0.01 | 0.01 | 88 | 1012.5 |
| 20260904090930 | 73 | 233 | 1.0 | 2.0 | 0.00 | 0.01 | 0.01 | 88 | 1012.5 |
| 20260904090825 | 73 | 244 | 2.0 | 2.0 | 0.00 | 0.02 | 0.01 | 88 | 1012.4 |
| 20260904090721 | 73 | 247 | 1.0 | 3.0 | 0.00 | 0.02 | 0.01 | 88 | 1012.3 |
| 20260904090617 | 73 | 249 | 1.0 | 2.0 | 0.00 | 0.02 | 0.01 | 88 | 1012.5 |
| 20260904090529 | 73 | 249 | 2.0 | 3.0 | 0.00 | 0.02 | 0.01 | 88 | 1012.4 |
| 20260904090424 | 73 | 238 | 3.0 | 3.0 | 0.00 | 0.02 | 0.01 | 88 | 1012.4 |
| 20260904090319 | 73 | 235 | 2.0 | 3.0 | 0.00 | 0.02 | 0.01 | 88 | 1012.4 |
| 20260904090231 | 73 | 243 | 2.0 | 3.0 | 0.00 | 0.02 | 0.01 | 88 | 1012.3 |
| 20260904090127 | 73 | 242 | 2.0 | 3.0 | 0.00 | 0.02 | 0.01 | 88 | 1012.4 |
| 20260904090022 | 73 | 241 | 1.0 | 3.0 | 0.00 | 0.02 | 0.01 | 88 | 1012.4 |
| 20260904085918 | 73 | 252 | 2.0 | 3.0 | 0.00 | 0.02 | 0.01 | 88 | 1012.5 |
| 20260904085829 | 73 | 254 | 1.0 | 2.0 | 0.00 | 0.02 | 0.01 | 88 | 1012.4 |
| 20260904085725 | 73 | 256 | 1.0 | 2.0 | 0.00 | 0.02 | 0.01 | 87 | 1012.5 |
| 20260904085621 | 73 | 256 | 1.0 | 2.0 | 0.00 | 0.02 | 0.01 | 87 | 1012.6 |
| 20260904085556 | 73 | 257 | 1.0 | 2.0 | 0.00 | 0.02 | 0.01 | 87 | 1012.5 |
| 20260904085428 | 73 | 257 | 1.0 | 1.0 | 0.00 | 0.02 | 0.01 | 87 | 1012.3 |
| 20260904085324 | 73 | 257 | 1.0 | 1.0 | 0.00 | 0.02 | 0.01 | 87 | 1012.3 |
| 20260904085219 | 73 | 257 | 1.0 | 2.0 | 0.00 | 0.02 | 0.01 | 87 | 1012.4 |
| 20260904085131 | 73 | 257 | 1.0 | 2.0 | 0.00 | 0.02 | 0.01 | 87 | 1012.3 |
| 20260904085026 | 73 | 259 | 1.0 | 1.0 | 0.00 | 0.02 | 0.01 | 87 | 1012.3 |
| 20260904084922 | 73 | 259 | 0.0 | 1.0 | 0.00 | 0.02 | 0.01 | 87 | 1012.4 |
| 20260904084817 | 73 | 259 | 1.0 | 1.0 | 0.00 | 0.02 | 0.01 | 87 | 1012.3 |
| 20260904084728 | 73 | 253 | 2.0 | 3.0 | 0.00 | 0.02 | 0.01 | 87 | 1012.3 |
| 20260904084644 | 73 | 248 | 2.0 | 3.0 | 0.00 | 0.02 | 0.01 | 87 | 1012.3 |
| 20260904084520 | 73 | 246 | 1.0 | 2.0 | 0.00 | 0.02 | 0.01 | 87 | 1012.4 |
| 20260904084415 | 73 | 246 | 0.0 | 1.0 | 0.00 | 0.02 | 0.01 | 87 | 1012.4 |
| 20260904084327 | 73 | 245 | 1.0 | 2.0 | 0.00 | 0.02 | 0.01 | 87 | 1012.4 |
| 20260904084222 | 73 | 251 | 1.0 | 3.0 | 0.00 | 0.03 | 0.01 | 87 | 1012.5 |
| 20260904084118 | 73 | 257 | 0.0 | 1.0 | 0.00 | 0.03 | 0.01 | 87 | 1012.6 |
| 20260904084050 | 73 | 257 | 1.0 | 2.0 | 0.00 | 0.03 | 0.01 | 87 | 1012.4 |
| 20260904083945 | 73 | 259 | 1.0 | 2.0 | 0.00 | 0.03 | 0.01 | 87 | 1012.5 |
| 20260904083821 | 73 | 262 | 1.0 | 1.0 | 0.00 | 0.03 | 0.01 | 87 | 1012.4 |
| 20260904083716 | 73 | 263 | 1.0 | 3.0 | 0.00 | 0.03 | 0.01 | 87 | 1012.5 |
| 20260904083628 | 73 | 246 | 3.0 | 6.0 | 0.00 | 0.03 | 0.01 | 87 | 1012.4 |
| 20260904083524 | 73 | 241 | 2.0 | 2.0 | 0.00 | 0.03 | 0.01 | 87 | 1012.5 |
| 20260904083419 | 73 | 242 | 2.0 | 4.0 | 0.00 | 0.03 | 0.01 | 87 | 1012.5 |
| 20260904083410 | 73 | 244 | 1.0 | 3.0 | 0.00 | 0.03 | 0.01 | 87 | 1012.4 |
| 20260904083225 | 73 | 238 | 2.0 | 4.0 | 0.00 | 0.03 | 0.01 | 87 | 1012.3 |
| 20260904083121 | 73 | 231 | 1.0 | 2.0 | 0.00 | 0.03 | 0.01 | 87 | 1012.4 |
| 20260904083016 | 73 | 235 | 1.0 | 1.0 | 0.00 | 0.03 | 0.01 | 87 | 1012.4 |
| 20260904082928 | 73 | 237 | 1.0 | 2.0 | 0.00 | 0.03 | 0.01 | 87 | 1012.5 |
| 20260904082824 | 73 | 252 | 1.0 | 2.0 | 0.00 | 0.03 | 0.01 | 87 | 1012.5 |
| 20260904082720 | 73 | 252 | 1.0 | 2.0 | 0.00 | 0.03 | 0.01 | 87 | 1012.6 |
| 20260904082615 | 73 | 252 | 1.0 | 2.0 | 0.00 | 0.03 | 0.01 | 87 | 1012.7 |
| 20260904082527 | 73 | 254 | 2.0 | 2.0 | 0.00 | 0.04 | 0.01 | 87 | 1012.6 |
| 20260904082422 | 73 | 272 | 1.0 | 2.0 | 0.00 | 0.04 | 0.01 | 87 | 1012.7 |
| 20260904082318 | 73 | 253 | 2.0 | 3.0 | 0.00 | 0.04 | 0.01 | 87 | 1012.6 |
| 20260904082229 | 73 | 246 | 1.0 | 3.0 | 0.00 | 0.04 | 0.01 | 87 | 1012.5 |
| 20260904082145 | 73 | 253 | 1.0 | 2.0 | 0.00 | 0.04 | 0.01 | 87 | 1012.6 |
| 20260904082021 | 73 | 0.0 | 0.0 | 0.00 | 0.04 | 0.01 | 87 | 1012.5 | |
| 20260904081916 | 73 | 312 | 0.0 | 1.0 | 0.00 | 0.04 | 0.01 | 87 | 1012.7 |
| 20260904081828 | 73 | 312 | 1.0 | 2.0 | 0.00 | 0.04 | 0.01 | 87 | 1012.7 |
| 20260904081723 | 73 | 313 | 1.0 | 2.0 | 0.00 | 0.04 | 0.01 | 87 | 1012.6 |
| 20260904081619 | 73 | 303 | 2.0 | 3.0 | 0.00 | 0.04 | 0.01 | 87 | 1012.5 |
| 20260904081531 | 73 | 245 | 1.0 | 2.0 | 0.00 | 0.04 | 0.01 | 87 | 1012.6 |
| 20260904081426 | 73 | 245 | 1.0 | 2.0 | 0.00 | 0.04 | 0.01 | 87 | 1012.5 |
| 20260904081322 | 73 | 245 | 2.0 | 6.0 | 0.00 | 0.04 | 0.01 | 87 | 1012.5 |
| 20260904081217 | 73 | 242 | 3.0 | 6.0 | 0.00 | 0.04 | 0.01 | 87 | 1012.6 |
| 20260904081129 | 73 | 232 | 2.0 | 3.0 | 0.00 | 0.04 | 0.01 | 87 | 1012.4 |
| 20260904081025 | 73 | 232 | 3.0 | 4.0 | 0.00 | 0.04 | 0.01 | 87 | 1012.5 |
| 20260904080920 | 73 | 241 | 3.0 | 3.0 | 0.00 | 0.04 | 0.01 | 87 | 1012.5 |
| 20260904080816 | 73 | 246 | 2.0 | 3.0 | 0.00 | 0.04 | 0.01 | 87 | 1012.4 |
| 20260904080728 | 73 | 249 | 2.0 | 3.0 | 0.00 | 0.04 | 0.01 | 87 | 1012.3 |
| 20260904080623 | 73 | 241 | 1.0 | 2.0 | 0.00 | 0.04 | 0.01 | 87 | 1012.2 |
| 20260904080559 | 73 | 243 | 1.0 | 3.0 | 0.00 | 0.04 | 0.01 | 87 | 1012.2 |
| 20260904080430 | 73 | 257 | 1.0 | 3.0 | 0.00 | 0.04 | 0.01 | 87 | 1012.4 |
| 20260904080326 | 73 | 257 | 2.0 | 4.0 | 0.00 | 0.04 | 0.01 | 88 | 1012.3 |
| 20260904080221 | 73 | 267 | 3.0 | 4.0 | 0.00 | 0.04 | 0.01 | 88 | 1012.4 |
| 20260904080117 | 73 | 233 | 2.0 | 4.0 | 0.00 | 0.04 | 0.01 | 88 | 1012.4 |
| 20260904080028 | 73 | 231 | 2.0 | 2.0 | 0.00 | 0.04 | 0.01 | 88 | 1012.3 |
| 20260904075924 | 73 | 227 | 3.0 | 3.0 | 0.00 | 0.04 | 0.01 | 87 | 1012.3 |
| 20260904075819 | 73 | 267 | 3.0 | 4.0 | 0.00 | 0.04 | 0.01 | 87 | 1012.1 |
| 20260904075731 | 73 | 239 | 1.0 | 2.0 | 0.00 | 0.04 | 0.01 | 87 | 1012.2 |
| 20260904075626 | 73 | 238 | 1.0 | 2.0 | 0.00 | 0.04 | 0.01 | 87 | 1012.2 |
| 20260904075522 | 73 | 236 | 2.0 | 3.0 | 0.00 | 0.04 | 0.01 | 87 | 1012.4 |
| 20260904075417 | 73 | 232 | 2.0 | 3.0 | 0.00 | 0.04 | 0.01 | 87 | 1012.3 |
| 20260904075329 | 73 | 246 | 1.0 | 2.0 | 0.00 | 0.04 | 0.01 | 87 | 1012.1 |
| 20260904075225 | 73 | 245 | 1.0 | 1.0 | 0.00 | 0.04 | 0.01 | 87 | 1012.1 |
| 20260904075120 | 73 | 244 | 0.0 | 1.0 | 0.00 | 0.04 | 0.01 | 87 | 1012.1 |
| 20260904075016 | 73 | 241 | 1.0 | 3.0 | 0.00 | 0.04 | 0.01 | 87 | 1012.4 |
| 20260904074928 | 73 | 269 | 1.0 | 2.0 | 0.00 | 0.04 | 0.01 | 87 | 1012.3 |
| 20260904074823 | 73 | 269 | 1.0 | 2.0 | 0.00 | 0.04 | 0.01 | 86 | 1012.3 |
| 20260904074719 | 73 | 269 | 0.0 | 1.0 | 0.00 | 0.04 | 0.01 | 86 | 1012.3 |
| 20260904074630 | 73 | 269 | 1.0 | 1.0 | 0.00 | 0.04 | 0.01 | 86 | 1012.2 |
| 20260904074526 | 73 | 269 | 1.0 | 2.0 | 0.00 | 0.04 | 0.01 | 87 | 1012.4 |
| 20260904074422 | 73 | 266 | 2.0 | 3.0 | 0.00 | 0.04 | 0.01 | 86 | 1012.2 |
| 20260904074317 | 73 | 255 | 1.0 | 2.0 | 0.00 | 0.04 | 0.01 | 86 | 1012.1 |
| 20260904074229 | 73 | 255 | 0.0 | 2.0 | 0.00 | 0.04 | 0.01 | 86 | 1012.3 |
| 20260904074124 | 73 | 255 | 1.0 | 1.0 | 0.00 | 0.04 | 0.01 | 86 | 1012.3 |
| 20260904074020 | 73 | 255 | 1.0 | 1.0 | 0.00 | 0.04 | 0.01 | 86 | 1012.0 |
| 20260904073935 | 73 | 259 | 1.0 | 2.0 | 0.00 | 0.04 | 0.01 | 86 | 1012.3 |
| 20260904073847 | 73 | 266 | 1.0 | 2.0 | 0.00 | 0.04 | 0.01 | 86 | 1012.3 |
| 20260904073722 | 73 | 270 | 2.0 | 3.0 | 0.00 | 0.04 | 0.01 | 86 | 1012.2 |
| 20260904073638 | 73 | 254 | 1.0 | 1.0 | 0.00 | 0.04 | 0.01 | 86 | 1012.3 |
| 20260904073529 | 73 | 254 | 1.0 | 1.0 | 0.00 | 0.04 | 0.01 | 86 | 1012.2 |
| 20260904073425 | 73 | 255 | 1.0 | 1.0 | 0.00 | 0.04 | 0.01 | 86 | 1012.3 |
| 20260904073320 | 73 | 258 | 1.0 | 2.0 | 0.00 | 0.04 | 0.01 | 86 | 1012.1 |
| 20260904073216 | 73 | 253 | 3.0 | 4.0 | 0.00 | 0.04 | 0.01 | 86 | 1012.3 |
| 20260904073128 | 73 | 247 | 3.0 | 4.0 | 0.00 | 0.04 | 0.01 | 86 | 1012.1 |
| 20260904073023 | 73 | 237 | 1.0 | 2.0 | 0.00 | 0.04 | 0.01 | 85 | 1011.9 |
| 20260904072919 | 73 | 237 | 1.0 | 3.0 | 0.00 | 0.04 | 0.01 | 85 | 1012.0 |
| 20260904072831 | 73 | 240 | 2.0 | 3.0 | 0.00 | 0.04 | 0.01 | 85 | 1012.1 |
| 20260904072726 | 73 | 243 | 1.0 | 2.0 | 0.00 | 0.04 | 0.01 | 85 | 1012.0 |
| 20260904072622 | 73 | 242 | 1.0 | 2.0 | 0.00 | 0.04 | 0.01 | 85 | 1012.1 |
| 20260904072517 | 73 | 242 | 2.0 | 2.0 | 0.00 | 0.04 | 0.01 | 86 | 1012.0 |
| 20260904072429 | 73 | 242 | 2.0 | 2.0 | 0.00 | 0.04 | 0.01 | 85 | 1012.0 |
| 20260904072325 | 73 | 243 | 1.0 | 2.0 | 0.00 | 0.04 | 0.01 | 85 | 1012.0 |
| 20260904072220 | 73 | 243 | 0.0 | 1.0 | 0.00 | 0.04 | 0.01 | 85 | 1012.1 |
| 20260904072116 | 73 | 0.0 | 0.0 | 0.00 | 0.05 | 0.01 | 85 | 1011.9 | |
| 20260904072048 | 73 | 245 | 0.0 | 1.0 | 0.00 | 0.05 | 0.01 | 85 | 1012.0 |
| 20260904071943 | 73 | 245 | 1.0 | 2.0 | 0.00 | 0.05 | 0.01 | 85 | 1012.1 |
| 20260904071819 | 73 | 265 | 1.0 | 2.0 | 0.00 | 0.05 | 0.01 | 85 | 1012.0 |
| 20260904071750 | 74 | 266 | 2.0 | 2.0 | 0.01 | 0.05 | 0.01 | 85 | 1012.0 |
| 20260904071626 | 73 | 259 | 2.0 | 3.0 | 0.01 | 0.05 | 0.01 | 85 | 1012.0 |
| 20260904071522 | 74 | 244 | 2.0 | 4.0 | 0.01 | 0.05 | 0.01 | 85 | 1012.0 |
| 20260904071417 | 74 | 244 | 1.0 | 2.0 | 0.01 | 0.05 | 0.01 | 85 | 1012.0 |
| 20260904071329 | 74 | 238 | 2.0 | 3.0 | 0.01 | 0.05 | 0.01 | 85 | 1012.1 |
| 20260904071224 | 74 | 247 | 1.0 | 2.0 | 0.01 | 0.05 | 0.01 | 85 | 1012.2 |
| 20260904071140 | 74 | 239 | 1.0 | 2.0 | 0.01 | 0.05 | 0.01 | 85 | 1012.1 |
| 20260904071015 | 74 | 225 | 1.0 | 4.0 | 0.01 | 0.05 | 0.01 | 85 | 1012.1 |
| 20260904070927 | 74 | 221 | 1.0 | 3.0 | 0.01 | 0.06 | 0.01 | 84 | 1012.0 |
| 20260904070843 | 74 | 217 | 0.0 | 1.0 | 0.01 | 0.06 | 0.01 | 84 | 1012.0 |
| 20260904070718 | 74 | 216 | 0.0 | 1.0 | 0.01 | 0.06 | 0.01 | 85 | 1011.9 |
| 20260904070630 | 74 | 216 | 1.0 | 2.0 | 0.01 | 0.06 | 0.01 | 85 | 1012.0 |
| 20260904070545 | 74 | 218 | 1.0 | 1.0 | 0.01 | 0.06 | 0.01 | 85 | 1012.1 |
| 20260904070421 | 74 | 218 | 1.0 | 1.0 | 0.01 | 0.07 | 0.01 | 85 | 1012.3 |
| 20260904070337 | 74 | 218 | 1.0 | 1.0 | 0.01 | 0.07 | 0.01 | 85 | 1012.1 |
| 20260904070248 | 74 | 218 | 1.0 | 1.0 | 0.01 | 0.07 | 0.01 | 84 | 1012.2 |
| 20260904070124 | 74 | 0.0 | 0.0 | 0.01 | 0.08 | 0.01 | 84 | 1012.3 | |
| 20260904070039 | 74 | 0.0 | 0.0 | 0.01 | 0.08 | 0.01 | 84 | 1012.1 | |
| 20260904065915 | 74 | 218 | 1.0 | 2.0 | 0.01 | 0.08 | 0.01 | 85 | 1012.1 |
| 20260904065827 | 74 | 218 | 0.0 | 2.0 | 0.01 | 0.08 | 0.01 | 83 | 1012.2 |
| 20260904065722 | 74 | 240 | 0.0 | 1.0 | 0.01 | 0.09 | 0.01 | 83 | 1012.3 |
| 20260904065638 | 74 | 0.0 | 0.0 | 0.01 | 0.09 | 0.01 | 83 | 1012.1 | |
| 20260904065530 | 74 | 0.0 | 0.0 | 0.01 | 0.09 | 0.01 | 83 | 1012.2 | |
| 20260904065425 | 74 | 0.0 | 0.0 | 0.01 | 0.09 | 0.01 | 84 | 1012.2 | |
| 20260904065321 | 74 | 0.0 | 0.0 | 0.01 | 0.09 | 0.01 | 84 | 1012.3 | |
| 20260904065216 | 75 | 241 | 1.0 | 1.0 | 0.01 | 0.09 | 0.01 | 84 | 1012.1 |
| 20260904065128 | 75 | 241 | 0.0 | 1.0 | 0.01 | 0.09 | 0.01 | 84 | 1012.2 |
| 20260904065024 | 75 | 242 | 0.0 | 1.0 | 0.01 | 0.10 | 0.01 | 83 | 1012.1 |
| 20260904064920 | 75 | 242 | 1.0 | 1.0 | 0.01 | 0.10 | 0.01 | 83 | 1012.3 |
| 20260904064815 | 75 | 242 | 0.0 | 1.0 | 0.01 | 0.10 | 0.01 | 84 | 1012.2 |
| 20260904064727 | 75 | 0.0 | 0.0 | 0.01 | 0.10 | 0.01 | 83 | 1012.1 | |
| 20260904064622 | 75 | 0.0 | 0.0 | 0.01 | 0.10 | 0.01 | 84 | 1012.1 | |
| 20260904064518 | 75 | 242 | 1.0 | 1.0 | 0.01 | 0.11 | 0.01 | 84 | 1012.1 |
| 20260904064430 | 75 | 245 | 1.0 | 1.0 | 0.01 | 0.11 | 0.01 | 83 | 1012.3 |
| 20260904064325 | 75 | 249 | 1.0 | 2.0 | 0.01 | 0.11 | 0.01 | 83 | 1012.3 |
| 20260904064221 | 75 | 249 | 0.0 | 1.0 | 0.01 | 0.11 | 0.01 | 83 | 1012.2 |
| 20260904064116 | 75 | 249 | 0.0 | 1.0 | 0.01 | 0.11 | 0.01 | 83 | 1012.3 |
| 20260904064028 | 75 | 0.0 | 0.0 | 0.01 | 0.11 | 0.01 | 83 | 1012.2 | |
| 20260904063924 | 75 | 249 | 0.0 | 1.0 | 0.01 | 0.11 | 0.01 | 82 | 1012.1 |
| 20260904063839 | 75 | 249 | 0.0 | 1.0 | 0.01 | 0.11 | 0.01 | 82 | 1012.2 |
| 20260904063731 | 75 | 249 | 1.0 | 1.0 | 0.01 | 0.11 | 0.01 | 82 | 1012.2 |
| 20260904063626 | 75 | 249 | 1.0 | 1.0 | 0.01 | 0.11 | 0.01 | 81 | 1012.1 |
| 20260904063542 | 75 | 250 | 0.0 | 1.0 | 0.01 | 0.11 | 0.01 | 81 | 1012.2 |
| 20260904063417 | 76 | 0.0 | 0.0 | 0.01 | 0.11 | 0.01 | 82 | 1012.3 | |
| 20260904063349 | 76 | 250 | 1.0 | 1.0 | 0.01 | 0.12 | 0.01 | 82 | 1012.1 |
| 20260904063225 | 76 | 250 | 1.0 | 2.0 | 0.01 | 0.12 | 0.01 | 81 | 1012.0 |
| 20260904063140 | 76 | 251 | 1.0 | 1.0 | 0.01 | 0.12 | 0.01 | 81 | 1012.0 |
| 20260904063016 | 76 | 252 | 1.0 | 2.0 | 0.01 | 0.12 | 0.01 | 81 | 1012.3 |
| 20260904062927 | 76 | 252 | 1.0 | 2.0 | 0.01 | 0.12 | 0.01 | 81 | 1012.4 |
| 20260904062823 | 76 | 251 | 2.0 | 2.0 | 0.01 | 0.12 | 0.01 | 80 | 1012.3 |
| 20260904062719 | 76 | 251 | 1.0 | 3.0 | 0.01 | 0.12 | 0.01 | 79 | 1012.1 |
| 20260904062630 | 76 | 252 | 0.0 | 1.0 | 0.01 | 0.12 | 0.01 | 79 | 1012.2 |
| 20260904062525 | 76 | 253 | 1.0 | 2.0 | 0.01 | 0.13 | 0.01 | 79 | 1012.4 |
| 20260904062441 | 76 | 253 | 0.0 | 1.0 | 0.01 | 0.13 | 0.01 | 80 | 1012.3 |
| 20260904062337 | 76 | 257 | 2.0 | 3.0 | 0.01 | 0.13 | 0.01 | 80 | 1012.1 |
| 20260904062228 | 76 | 280 | 2.0 | 4.0 | 0.01 | 0.13 | 0.01 | 79 | 1012.4 |
| 20260904062124 | 77 | 299 | 3.0 | 4.0 | 0.01 | 0.13 | 0.01 | 79 | 1012.5 |
| 20260904062020 | 77 | 238 | 3.0 | 7.0 | 0.01 | 0.13 | 0.01 | 78 | 1012.6 |
| 20260904061915 | 77 | 248 | 6.0 | 9.0 | 0.01 | 0.13 | 0.01 | 78 | 1012.6 |
| 20260904061827 | 77 | 247 | 5.0 | 9.0 | 0.01 | 0.13 | 0.01 | 77 | 1012.7 |
| 20260904061723 | 77 | 252 | 3.0 | 6.0 | 0.00 | 0.13 | 0.00 | 77 | 1012.7 |
| 20260904061618 | 77 | 280 | 5.0 | 9.0 | 0.00 | 0.13 | 0.00 | 77 | 1012.7 |
| 20260904061530 | 77 | 244 | 3.0 | 6.0 | 0.00 | 0.13 | 0.00 | 76 | 1012.7 |
| 20260904061425 | 77 | 241 | 5.0 | 8.0 | 0.00 | 0.13 | 0.00 | 75 | 1012.6 |
| 20260904061321 | 78 | 296 | 4.0 | 7.0 | 0.00 | 0.13 | 0.00 | 74 | 1012.5 |
| 20260904061237 | 78 | 259 | 4.0 | 8.0 | 0.00 | 0.13 | 0.00 | 74 | 1012.6 |
| 20260904061128 | 78 | 242 | 4.0 | 9.0 | 0.00 | 0.13 | 0.00 | 74 | 1012.7 |
| 20260904061044 | 78 | 240 | 5.0 | 9.0 | 0.00 | 0.13 | 0.00 | 74 | 1012.9 |
| 20260904060919 | 78 | 233 | 3.0 | 6.0 | 0.00 | 0.13 | 0.00 | 73 | 1013.0 |
| 20260904060815 | 78 | 234 | 5.0 | 8.0 | 0.00 | 0.13 | 0.00 | 73 | 1013.0 |
| 20260904060727 | 78 | 226 | 6.0 | 10.0 | 0.00 | 0.13 | 0.00 | 73 | 1012.8 |
| 20260904060622 | 78 | 243 | 3.0 | 6.0 | 0.00 | 0.13 | 0.00 | 73 | 1012.9 |
| 20260904060538 | 78 | 257 | 6.0 | 13.0 | 0.00 | 0.13 | 0.00 | 73 | 1013.0 |
| 20260904060429 | 78 | 238 | 5.0 | 9.0 | 0.00 | 0.13 | 0.00 | 73 | 1012.8 |
| 20260904060325 | 78 | 248 | 3.0 | 7.0 | 0.00 | 0.13 | 0.00 | 73 | 1012.8 |
| 20260904060221 | 78 | 271 | 4.0 | 7.0 | 0.00 | 0.13 | 0.00 | 73 | 1012.9 |
| 20260904060117 | 78 | 295 | 4.0 | 8.0 | 0.00 | 0.13 | 0.00 | 73 | 1013.0 |
| 20260904060028 | 78 | 254 | 5.0 | 9.0 | 0.00 | 0.13 | 0.00 | 73 | 1012.9 |
| 20260904055924 | 78 | 247 | 4.0 | 9.0 | 0.00 | 0.13 | 0.00 | 73 | 1012.9 |
| 20260904055839 | 78 | 233 | 6.0 | 10.0 | 0.00 | 0.13 | 0.00 | 73 | 1012.9 |
| 20260904055731 | 78 | 238 | 6.0 | 10.0 | 0.00 | 0.13 | 0.00 | 74 | 1013.0 |
| 20260904055626 | 78 | 235 | 5.0 | 10.0 | 0.00 | 0.13 | 0.00 | 75 | 1013.0 |
| 20260904055522 | 77 | 239 | 4.0 | 6.0 | 0.00 | 0.13 | 0.00 | 76 | 1012.9 |
| 20260904055417 | 77 | 236 | 6.0 | 9.0 | 0.00 | 0.13 | 0.00 | 77 | 1012.9 |
| 20260904055329 | 77 | 226 | 4.0 | 7.0 | 0.00 | 0.13 | 0.00 | 78 | 1013.0 |
| 20260904055225 | 77 | 224 | 4.0 | 8.0 | 0.00 | 0.14 | 0.00 | 79 | 1012.8 |
| 20260904055140 | 77 | 239 | 6.0 | 11.0 | 0.00 | 0.14 | 0.00 | 80 | 1012.9 |
| 20260904055016 | 77 | 249 | 3.0 | 6.0 | 0.00 | 0.14 | 0.00 | 81 | 1012.9 |
| 20260904054948 | 77 | 257 | 4.0 | 8.0 | 0.00 | 0.14 | 0.00 | 81 | 1012.7 |
| 20260904054823 | 77 | 224 | 5.0 | 9.0 | 0.00 | 0.14 | 0.00 | 82 | 1012.7 |
| 20260904054718 | 77 | 250 | 4.0 | 7.0 | 0.00 | 0.14 | 0.00 | 83 | 1012.6 |
| 20260904054650 | 77 | 237 | 4.0 | 10.0 | 0.00 | 0.14 | 0.00 | 84 | 1012.8 |
| 20260904054526 | 77 | 218 | 2.0 | 3.0 | 0.00 | 0.14 | 0.00 | 84 | 1012.9 |
| 20260904054421 | 77 | 223 | 0.0 | 1.0 | 0.00 | 0.14 | 0.00 | 84 | 1012.8 |
| 20260904054317 | 77 | 223 | 1.0 | 1.0 | 0.00 | 0.14 | 0.00 | 84 | 1013.1 |
| 20260904054228 | 77 | 222 | 1.0 | 2.0 | 0.00 | 0.14 | 0.00 | 84 | 1013.0 |
| 20260904054124 | 77 | 223 | 0.0 | 1.0 | 0.00 | 0.14 | 0.00 | 84 | 1013.0 |
| 20260904054020 | 77 | 223 | 1.0 | 1.0 | 0.00 | 0.14 | 0.00 | 84 | 1013.0 |
| 20260904053915 | 77 | 223 | 0.0 | 1.0 | 0.00 | 0.15 | 0.00 | 84 | 1013.2 |
| 20260904053847 | 77 | 222 | 1.0 | 1.0 | 0.00 | 0.15 | 0.00 | 84 | 1013.1 |
| 20260904053722 | 77 | 222 | 2.0 | 3.0 | 0.00 | 0.15 | 0.00 | 84 | 1013.2 |
| 20260904053618 | 77 | 228 | 2.0 | 3.0 | 0.00 | 0.15 | 0.00 | 84 | 1013.2 |
| 20260904053529 | 77 | 231 | 0.0 | 1.0 | 0.00 | 0.15 | 0.00 | 84 | 1013.1 |
| 20260904053425 | 76 | 231 | 1.0 | 2.0 | 0.00 | 0.15 | 0.00 | 84 | 1013.1 |
| 20260904053321 | 76 | 231 | 2.0 | 3.0 | 0.00 | 0.15 | 0.00 | 84 | 1013.1 |
| 20260904053216 | 76 | 234 | 1.0 | 2.0 | 0.00 | 0.15 | 0.00 | 84 | 1013.2 |
| 20260904053128 | 76 | 233 | 0.0 | 1.0 | 0.00 | 0.15 | 0.00 | 84 | 1013.4 |
| 20260904053023 | 76 | 234 | 0.0 | 1.0 | 0.00 | 0.15 | 0.00 | 84 | 1013.3 |
| 20260904052939 | 76 | 0.0 | 0.0 | 0.00 | 0.16 | 0.00 | 84 | 1013.3 | |
| 20260904052911 | 76 | 234 | 1.0 | 1.0 | 0.00 | 0.16 | 0.00 | 84 | 1013.3 |
| 20260904052746 | 76 | 234 | 1.0 | 2.0 | 0.00 | 0.16 | 0.00 | 84 | 1013.4 |
| 20260904052701 | 76 | 233 | 1.0 | 2.0 | 0.00 | 0.17 | 0.00 | 84 | 1013.4 |
| 20260904052517 | 76 | 233 | 2.0 | 3.0 | 0.00 | 0.17 | 0.00 | 84 | 1013.3 |
| 20260904052428 | 76 | 224 | 1.0 | 3.0 | 0.00 | 0.17 | 0.00 | 84 | 1013.5 |
| 20260904052324 | 76 | 216 | 1.0 | 1.0 | 0.00 | 0.17 | 0.00 | 84 | 1013.4 |
| 20260904052220 | 76 | 216 | 0.0 | 1.0 | 0.00 | 0.18 | 0.00 | 84 | 1013.2 |
| 20260904052115 | 76 | 216 | 1.0 | 1.0 | 0.00 | 0.18 | 0.00 | 84 | 1013.2 |
| 20260904052027 | 76 | 216 | 1.0 | 1.0 | 0.00 | 0.19 | 0.00 | 84 | 1013.4 |
| 20260904051923 | 76 | 216 | 0.0 | 1.0 | 0.00 | 0.19 | 0.00 | 84 | 1013.2 |
| 20260904051818 | 76 | 216 | 0.0 | 1.0 | 0.00 | 0.19 | 0.00 | 84 | 1013.2 |
| 20260904051730 | 76 | 216 | 0.0 | 1.0 | 0.00 | 0.19 | 0.00 | 84 | 1013.4 |
| 20260904051645 | 76 | 216 | 1.0 | 1.0 | 0.00 | 0.19 | 0.00 | 84 | 1013.3 |
| 20260904051521 | 76 | 215 | 1.0 | 1.0 | 0.00 | 0.19 | 0.00 | 84 | 1013.3 |
| 20260904051436 | 76 | 215 | 0.0 | 1.0 | 0.00 | 0.19 | 0.00 | 84 | 1013.3 |
| 20260904051328 | 76 | 215 | 0.0 | 1.0 | 0.00 | 0.19 | 0.00 | 84 | 1013.2 |
| 20260904051223 | 76 | 209 | 1.0 | 2.0 | 0.00 | 0.19 | 0.00 | 84 | 1013.2 |
| 20260904051119 | 76 | 202 | 1.0 | 2.0 | 0.00 | 0.19 | 0.00 | 84 | 1013.2 |
| 20260904051031 | 76 | 190 | 1.0 | 2.0 | 0.00 | 0.20 | 0.00 | 84 | 1013.2 |
| 20260904050926 | 76 | 190 | 1.0 | 1.0 | 0.00 | 0.20 | 0.00 | 84 | 1013.1 |
| 20260904050821 | 76 | 190 | 1.0 | 1.0 | 0.00 | 0.20 | 0.00 | 84 | 1013.3 |
| 20260904050718 | 76 | 189 | 0.0 | 1.0 | 0.00 | 0.20 | 0.00 | 84 | 1013.3 |
| 20260904050629 | 76 | 189 | 1.0 | 1.0 | 0.00 | 0.20 | 0.00 | 84 | 1013.4 |
| 20260904050524 | 76 | 189 | 0.0 | 1.0 | 0.00 | 0.20 | 0.00 | 84 | 1013.2 |
| 20260904050420 | 76 | 189 | 0.0 | 1.0 | 0.00 | 0.20 | 0.00 | 83 | 1013.1 |
| 20260904050315 | 76 | 0.0 | 0.0 | 0.00 | 0.20 | 0.00 | 83 | 1013.1 | |
| 20260904050247 | 76 | 189 | 0.0 | 1.0 | 0.00 | 0.20 | 0.00 | 83 | 1013.3 |
| 20260904050122 | 76 | 189 | 0.0 | 1.0 | 0.00 | 0.21 | 0.00 | 83 | 1013.3 |
| 20260904050018 | 76 | 189 | 1.0 | 2.0 | 0.00 | 0.21 | 0.00 | 83 | 1013.0 |
| 20260904045929 | 76 | 189 | 0.0 | 2.0 | 0.00 | 0.21 | 0.00 | 83 | 1013.1 |
| 20260904045825 | 76 | 189 | 0.0 | 1.0 | 0.00 | 0.21 | 0.00 | 83 | 1013.2 |
| 20260904045721 | 76 | 0.0 | 0.0 | 0.00 | 0.21 | 0.00 | 83 | 1013.1 | |
| 20260904045616 | 76 | 0.0 | 0.0 | 0.00 | 0.21 | 0.00 | 83 | 1013.2 | |
| 20260904045528 | 76 | 189 | 0.0 | 1.0 | 0.00 | 0.21 | 0.00 | 83 | 1013.2 |
| 20260904045423 | 76 | 0.0 | 0.0 | 0.00 | 0.21 | 0.00 | 83 | 1013.2 | |
| 20260904045319 | 76 | 189 | 0.0 | 1.0 | 0.00 | 0.21 | 0.00 | 83 | 1013.1 |
| 20260904045230 | 76 | 189 | 0.0 | 1.0 | 0.00 | 0.21 | 0.00 | 83 | 1013.0 |
| 20260904045206 | 77 | 189 | 0.0 | 1.0 | 0.00 | 0.21 | 0.00 | 83 | 1013.1 |
| 20260904045022 | 77 | 189 | 0.0 | 1.0 | 0.00 | 0.21 | 0.00 | 83 | 1013.2 |
| 20260904044917 | 77 | 189 | 0.0 | 1.0 | 0.00 | 0.21 | 0.00 | 83 | 1013.2 |
| 20260904044829 | 77 | 189 | 0.0 | 1.0 | 0.00 | 0.21 | 0.00 | 83 | 1013.2 |
| 20260904044744 | 77 | 189 | 0.0 | 1.0 | 0.00 | 0.21 | 0.00 | 83 | 1013.3 |
| 20260904044620 | 77 | 189 | 0.0 | 1.0 | 0.00 | 0.22 | 0.00 | 83 | 1013.0 |
| 20260904044515 | 77 | 189 | 0.0 | 1.0 | 0.00 | 0.22 | 0.00 | 83 | 1013.0 |
| 20260904044427 | 77 | 0.0 | 0.0 | 0.00 | 0.22 | 0.00 | 83 | 1013.1 | |
| 20260904044322 | 77 | 189 | 0.0 | 1.0 | 0.00 | 0.22 | 0.00 | 83 | 1013.1 |
| 20260904044218 | 77 | 0.0 | 0.0 | 0.00 | 0.22 | 0.00 | 83 | 1013.1 | |
| 20260904044130 | 77 | 189 | 0.0 | 1.0 | 0.00 | 0.22 | 0.00 | 83 | 1013.3 |
| 20260904044026 | 77 | 0.0 | 0.0 | 0.00 | 0.22 | 0.00 | 83 | 1013.2 | |
| 20260904043921 | 77 | 0.0 | 0.0 | 0.00 | 0.22 | 0.00 | 83 | 1013.3 | |
| 20260904043816 | 77 | 189 | 1.0 | 1.0 | 0.00 | 0.22 | 0.00 | 83 | 1013.2 |
| 20260904043728 | 77 | 189 | 1.0 | 1.0 | 0.00 | 0.22 | 0.00 | 83 | 1013.4 |
| 20260904043644 | 77 | 190 | 1.0 | 1.0 | 0.00 | 0.22 | 0.00 | 83 | 1013.4 |
| 20260904043519 | 77 | 0.0 | 0.0 | 0.00 | 0.22 | 0.00 | 83 | 1013.4 | |
| 20260904043431 | 77 | 189 | 0.0 | 1.0 | 0.00 | 0.23 | 0.00 | 83 | 1013.5 |
| 20260904043326 | 77 | 189 | 0.0 | 1.0 | 0.00 | 0.23 | 0.00 | 83 | 1013.5 |
| 20260904043222 | 77 | 189 | 0.0 | 1.0 | 0.00 | 0.23 | 0.00 | 83 | 1013.7 |
| 20260904043117 | 77 | 189 | 1.0 | 1.0 | 0.00 | 0.23 | 0.00 | 83 | 1013.4 |
| 20260904043029 | 77 | 199 | 1.0 | 2.0 | 0.00 | 0.23 | 0.00 | 83 | 1013.7 |
| 20260904042944 | 77 | 242 | 0.0 | 1.0 | 0.00 | 0.23 | 0.00 | 83 | 1013.5 |
| 20260904042820 | 77 | 247 | 1.0 | 3.0 | 0.00 | 0.23 | 0.00 | 83 | 1013.5 |
| 20260904042716 | 77 | 203 | 1.0 | 3.0 | 0.00 | 0.23 | 0.00 | 83 | 1013.7 |
| 20260904042627 | 77 | 182 | 0.0 | 1.0 | 0.00 | 0.23 | 0.00 | 83 | 1013.4 |
| 20260904042523 | 76 | 183 | 0.0 | 1.0 | 0.00 | 0.23 | 0.00 | 83 | 1013.5 |
| 20260904042418 | 76 | 0.0 | 0.0 | 0.00 | 0.23 | 0.00 | 83 | 1013.7 | |
| 20260904042330 | 76 | 183 | 0.0 | 1.0 | 0.00 | 0.23 | 0.00 | 83 | 1013.5 |
| 20260904042225 | 76 | 183 | 1.0 | 2.0 | 0.00 | 0.23 | 0.00 | 84 | 1013.7 |
| 20260904042121 | 76 | 223 | 1.0 | 1.0 | 0.00 | 0.24 | 0.00 | 83 | 1013.7 |
| 20260904042017 | 76 | 223 | 1.0 | 1.0 | 0.00 | 0.24 | 0.00 | 83 | 1013.6 |
| 20260904041928 | 76 | 223 | 0.0 | 1.0 | 0.00 | 0.24 | 0.00 | 83 | 1013.7 |
| 20260904041824 | 76 | 223 | 0.0 | 1.0 | 0.00 | 0.24 | 0.00 | 83 | 1013.7 |
| 20260904041720 | 76 | 223 | 1.0 | 2.0 | 0.00 | 0.24 | 0.00 | 83 | 1013.7 |
| 20260904041635 | 76 | 223 | 1.0 | 1.0 | 0.00 | 0.24 | 0.00 | 83 | 1013.5 |
| 20260904041527 | 76 | 223 | 1.0 | 1.0 | 0.00 | 0.24 | 0.00 | 83 | 1013.8 |
| 20260904041422 | 76 | 0.0 | 0.0 | 0.00 | 0.24 | 0.00 | 83 | 1013.8 | |
| 20260904041318 | 76 | 223 | 1.0 | 1.0 | 0.00 | 0.24 | 0.00 | 83 | 1013.5 |
| 20260904041230 | 76 | 223 | 0.0 | 1.0 | 0.00 | 0.24 | 0.00 | 83 | 1013.7 |
| 20260904041125 | 76 | 0.0 | 0.0 | 0.00 | 0.24 | 0.00 | 83 | 1013.7 | |
| 20260904041021 | 76 | 223 | 1.0 | 1.0 | 0.00 | 0.24 | 0.00 | 83 | 1013.9 |
| 20260904040916 | 76 | 223 | 1.0 | 1.0 | 0.00 | 0.24 | 0.00 | 83 | 1013.9 |
| 20260904040848 | 76 | 223 | 1.0 | 1.0 | 0.00 | 0.24 | 0.00 | 83 | 1013.6 |
| 20260904040724 | 76 | 223 | 0.0 | 1.0 | 0.00 | 0.24 | 0.00 | 83 | 1013.7 |
| 20260904040619 | 76 | 223 | 0.0 | 1.0 | 0.00 | 0.24 | 0.00 | 83 | 1013.9 |
| 20260904040531 | 76 | 223 | 0.0 | 1.0 | 0.00 | 0.24 | 0.00 | 83 | 1013.7 |
| 20260904040426 | 76 | 224 | 1.0 | 1.0 | 0.00 | 0.24 | 0.00 | 83 | 1013.7 |
| 20260904040322 | 76 | 224 | 1.0 | 1.0 | 0.00 | 0.24 | 0.00 | 83 | 1013.8 |
| 20260904040218 | 76 | 224 | 1.0 | 1.0 | 0.00 | 0.24 | 0.00 | 83 | 1013.8 |
| 20260904040149 | 76 | 224 | 1.0 | 1.0 | 0.00 | 0.24 | 0.00 | 83 | 1013.6 |
| 20260904040025 | 76 | 223 | 0.0 | 1.0 | 0.00 | 0.24 | 0.24 | 82 | 1013.8 |
| 20260904035920 | 76 | 224 | 0.0 | 1.0 | 0.00 | 0.24 | 0.24 | 82 | 1013.8 |
| 20260904035815 | 76 | 0.0 | 0.0 | 0.00 | 0.24 | 0.24 | 82 | 1013.6 | |
| 20260904035727 | 76 | 0.0 | 0.0 | 0.00 | 0.24 | 0.24 | 82 | 1013.8 | |
| 20260904035622 | 76 | 224 | 1.0 | 1.0 | 0.00 | 0.24 | 0.24 | 82 | 1013.7 |
| 20260904035518 | 76 | 0.0 | 0.0 | 0.00 | 0.24 | 0.24 | 82 | 1013.9 | |
| 20260904035430 | 76 | 224 | 0.0 | 1.0 | 0.00 | 0.24 | 0.24 | 83 | 1013.9 |
| 20260904035325 | 76 | 224 | 0.0 | 1.0 | 0.00 | 0.24 | 0.24 | 83 | 1014.0 |
| 20260904035241 | 76 | 224 | 0.0 | 1.0 | 0.00 | 0.24 | 0.24 | 82 | 1014.1 |
| 20260904035116 | 76 | 224 | 0.0 | 1.0 | 0.00 | 0.24 | 0.24 | 83 | 1014.0 |
| 20260904035028 | 77 | 224 | 1.0 | 1.0 | 0.00 | 0.24 | 0.24 | 82 | 1013.9 |
| 20260904034924 | 77 | 224 | 1.0 | 2.0 | 0.00 | 0.24 | 0.24 | 82 | 1013.8 |
| 20260904034859 | 77 | 0.0 | 0.0 | 0.00 | 0.24 | 0.24 | 82 | 1013.9 | |
| 20260904034731 | 77 | 226 | 1.0 | 2.0 | 0.00 | 0.24 | 0.24 | 82 | 1013.8 |
| 20260904034626 | 77 | 225 | 0.0 | 1.0 | 0.00 | 0.24 | 0.24 | 82 | 1013.8 |
| 20260904034522 | 77 | 225 | 0.0 | 1.0 | 0.00 | 0.24 | 0.24 | 82 | 1013.9 |
| 20260904034417 | 77 | 225 | 0.0 | 1.0 | 0.00 | 0.24 | 0.24 | 82 | 1013.9 |
| 20260904034329 | 77 | 0.0 | 0.0 | 0.00 | 0.24 | 0.24 | 82 | 1013.9 | |
| 20260904034225 | 77 | 225 | 0.0 | 1.0 | 0.00 | 0.24 | 0.24 | 82 | 1014.0 |
| 20260904034121 | 77 | 225 | 0.0 | 1.0 | 0.00 | 0.24 | 0.24 | 82 | 1013.9 |
| 20260904034016 | 77 | 226 | 0.0 | 1.0 | 0.00 | 0.24 | 0.24 | 82 | 1013.8 |
| 20260904033928 | 77 | 0.0 | 0.0 | 0.00 | 0.24 | 0.24 | 82 | 1013.8 | |
| 20260904033823 | 77 | 0.0 | 0.0 | 0.00 | 0.24 | 0.24 | 82 | 1013.8 | |
| 20260904033719 | 77 | 0.0 | 0.0 | 0.00 | 0.24 | 0.24 | 82 | 1013.8 | |
| 20260904033631 | 77 | 0.0 | 0.0 | 0.00 | 0.24 | 0.24 | 82 | 1013.8 | |
| 20260904033546 | 77 | 225 | 0.0 | 1.0 | 0.00 | 0.24 | 0.24 | 82 | 1013.8 |
| 20260904033422 | 77 | 225 | 0.0 | 1.0 | 0.00 | 0.24 | 0.24 | 82 | 1013.7 |
| 20260904033317 | 77 | 225 | 1.0 | 1.0 | 0.00 | 0.24 | 0.24 | 82 | 1013.7 |
| 20260904033229 | 77 | 225 | 1.0 | 1.0 | 0.00 | 0.24 | 0.24 | 82 | 1013.8 |
| 20260904033125 | 77 | 225 | 1.0 | 1.0 | 0.00 | 0.24 | 0.24 | 82 | 1013.7 |
| 20260904033020 | 77 | 225 | 1.0 | 1.0 | 0.00 | 0.24 | 0.24 | 82 | 1013.7 |
| 20260904032916 | 77 | 225 | 0.0 | 1.0 | 0.00 | 0.24 | 0.24 | 82 | 1013.7 |
| 20260904032827 | 77 | 0.0 | 0.0 | 0.00 | 0.24 | 0.24 | 82 | 1013.8 | |
| 20260904032723 | 77 | 0.0 | 0.0 | 0.00 | 0.24 | 0.24 | 82 | 1013.9 | |
| 20260904032639 | 77 | 0.0 | 0.0 | 0.00 | 0.24 | 0.24 | 82 | 1013.9 | |
| 20260904032550 | 77 | 225 | 0.0 | 1.0 | 0.00 | 0.24 | 0.24 | 82 | 1013.6 |
| 20260904032526 | 77 | 225 | 1.0 | 1.0 | 0.00 | 0.24 | 0.24 | 82 | 1013.7 |
| 20260904032322 | 77 | 225 | 1.0 | 1.0 | 0.00 | 0.24 | 0.24 | 82 | 1013.8 |
| 20260904032217 | 77 | 225 | 1.0 | 2.0 | 0.00 | 0.24 | 0.24 | 82 | 1013.8 |
| 20260904032129 | 77 | 225 | 1.0 | 1.0 | 0.00 | 0.24 | 0.24 | 82 | 1013.7 |
| 20260904032024 | 77 | 226 | 1.0 | 1.0 | 0.00 | 0.24 | 0.24 | 82 | 1013.6 |
| 20260904031920 | 77 | 226 | 1.0 | 1.0 | 0.00 | 0.24 | 0.24 | 82 | 1013.6 |
| 20260904031815 | 77 | 226 | 1.0 | 1.0 | 0.00 | 0.24 | 0.24 | 81 | 1013.6 |
| 20260904031727 | 77 | 226 | 0.0 | 1.0 | 0.00 | 0.24 | 0.24 | 81 | 1013.6 |
| 20260904031623 | 77 | 226 | 0.0 | 1.0 | 0.00 | 0.24 | 0.24 | 81 | 1013.5 |
| 20260904031518 | 77 | 226 | 0.0 | 1.0 | 0.00 | 0.24 | 0.24 | 81 | 1013.6 |
| 20260904031430 | 77 | 226 | 0.0 | 1.0 | 0.00 | 0.24 | 0.24 | 81 | 1013.5 |
| 20260904031326 | 77 | 0.0 | 0.0 | 0.00 | 0.24 | 0.24 | 81 | 1013.7 | |
| 20260904031221 | 77 | 0.0 | 0.0 | 0.00 | 0.24 | 0.24 | 81 | 1013.7 | |
| 20260904031117 | 77 | 0.0 | 0.0 | 0.00 | 0.24 | 0.24 | 82 | 1013.7 | |
| 20260904031028 | 77 | 0.0 | 0.0 | 0.00 | 0.24 | 0.24 | 82 | 1013.6 | |
| 20260904030924 | 77 | 226 | 1.0 | 1.0 | 0.00 | 0.24 | 0.24 | 82 | 1013.6 |
| 20260904030819 | 77 | 226 | 1.0 | 1.0 | 0.00 | 0.24 | 0.24 | 82 | 1013.5 |
| 20260904030715 | 77 | 225 | 1.0 | 1.0 | 0.00 | 0.24 | 0.24 | 82 | 1013.5 |
| 20260904030627 | 77 | 226 | 1.0 | 1.0 | 0.00 | 0.24 | 0.24 | 82 | 1013.6 |
| 20260904030522 | 77 | 226 | 1.0 | 1.0 | 0.00 | 0.24 | 0.24 | 82 | 1013.6 |
| 20260904030458 | 77 | 226 | 1.0 | 1.0 | 0.00 | 0.24 | 0.24 | 82 | 1013.7 |
| 20260904030329 | 77 | 226 | 1.0 | 1.0 | 0.00 | 0.24 | 0.24 | 81 | 1013.6 |
| 20260904030245 | 77 | 226 | 1.0 | 1.0 | 0.00 | 0.24 | 0.24 | 81 | 1013.6 |
| 20260904030140 | 77 | 226 | 1.0 | 1.0 | 0.00 | 0.24 | 0.24 | 81 | 1013.5 |
| 20260904030016 | 77 | 226 | 1.0 | 1.0 | 0.00 | 0.24 | 0.24 | 81 | 1013.6 |
| 20260904025948 | 77 | 226 | 1.0 | 1.0 | 0.00 | 0.24 | 0.24 | 82 | 1013.7 |
| 20260904025823 | 77 | 226 | 1.0 | 1.0 | 0.00 | 0.24 | 0.24 | 82 | 1013.7 |
| 20260904025719 | 77 | 226 | 1.0 | 1.0 | 0.00 | 0.24 | 0.24 | 81 | 1013.5 |
| 20260904025631 | 77 | 226 | 1.0 | 1.0 | 0.00 | 0.24 | 0.24 | 81 | 1013.8 |
| 20260904025546 | 77 | 226 | 0.0 | 1.0 | 0.00 | 0.24 | 0.24 | 81 | 1013.6 |
| 20260904025422 | 77 | 0.0 | 0.0 | 0.00 | 0.24 | 0.24 | 81 | 1013.7 | |
| 20260904025317 | 77 | 0.0 | 0.0 | 0.00 | 0.24 | 0.24 | 81 | 1013.7 | |
| 20260904025229 | 77 | 0.0 | 0.0 | 0.00 | 0.24 | 0.24 | 81 | 1014.0 | |
| 20260904025144 | 77 | 0.0 | 0.0 | 0.00 | 0.24 | 0.24 | 81 | 1014.1 | |
| 20260904025020 | 77 | 0.0 | 0.0 | 0.00 | 0.24 | 0.24 | 80 | 1013.9 | |
| 20260904024916 | 77 | 0.0 | 0.0 | 0.00 | 0.24 | 0.24 | 80 | 1014.0 | |
| 20260904024827 | 77 | 0.0 | 0.0 | 0.00 | 0.24 | 0.24 | 80 | 1014.0 | |
| 20260904024723 | 77 | 0.0 | 0.0 | 0.00 | 0.24 | 0.24 | 80 | 1014.1 | |
| 20260904024618 | 77 | 0.0 | 0.0 | 0.00 | 0.24 | 0.24 | 80 | 1014.1 | |
| 20260904024530 | 77 | 0.0 | 0.0 | 0.00 | 0.24 | 0.24 | 80 | 1014.0 | |
| 20260904024426 | 77 | 0.0 | 0.0 | 0.00 | 0.24 | 0.24 | 80 | 1014.1 | |
| 20260904024321 | 77 | 0.0 | 0.0 | 0.00 | 0.24 | 0.24 | 80 | 1014.1 | |
| 20260904024217 | 77 | 226 | 0.0 | 1.0 | 0.00 | 0.24 | 0.24 | 80 | 1014.1 |
| 20260904024128 | 77 | 0.0 | 0.0 | 0.00 | 0.24 | 0.24 | 80 | 1014.3 | |
| 20260904024024 | 77 | 0.0 | 0.0 | 0.00 | 0.24 | 0.24 | 80 | 1014.2 | |
| 20260904023919 | 78 | 0.0 | 0.0 | 0.00 | 0.24 | 0.24 | 80 | 1014.1 | |
| 20260904023815 | 78 | 0.0 | 0.0 | 0.00 | 0.24 | 0.24 | 80 | 1014.2 | |
| 20260904023727 | 77 | 0.0 | 0.0 | 0.00 | 0.24 | 0.24 | 80 | 1014.2 | |
| 20260904023622 | 77 | 0.0 | 0.0 | 0.00 | 0.24 | 0.24 | 80 | 1014.3 | |
| 20260904023518 | 78 | 226 | 0.0 | 1.0 | 0.00 | 0.24 | 0.24 | 80 | 1014.3 |
| 20260904023430 | 78 | 226 | 0.0 | 1.0 | 0.00 | 0.24 | 0.24 | 80 | 1014.3 |
| 20260904023325 | 78 | 226 | 0.0 | 1.0 | 0.00 | 0.24 | 0.24 | 80 | 1014.1 |
| 20260904023221 | 78 | 226 | 0.0 | 1.0 | 0.00 | 0.24 | 0.24 | 80 | 1014.1 |
| 20260904023117 | 78 | 0.0 | 0.0 | 0.00 | 0.24 | 0.24 | 80 | 1014.2 | |
| 20260904023028 | 78 | 0.0 | 0.0 | 0.00 | 0.24 | 0.24 | 80 | 1014.3 | |
| 20260904023004 | 78 | 0.0 | 0.0 | 0.00 | 0.24 | 0.24 | 80 | 1014.2 | |
| 20260904022819 | 78 | 226 | 0.0 | 1.0 | 0.00 | 0.24 | 0.24 | 80 | 1014.1 |
| 20260904022731 | 78 | 226 | 0.0 | 1.0 | 0.00 | 0.24 | 0.24 | 80 | 1014.1 |
| 20260904022626 | 78 | 226 | 0.0 | 1.0 | 0.00 | 0.24 | 0.24 | 80 | 1014.1 |
| 20260904022522 | 78 | 226 | 0.0 | 1.0 | 0.00 | 0.24 | 0.24 | 80 | 1014.0 |
| 20260904022418 | 78 | 226 | 0.0 | 1.0 | 0.00 | 0.24 | 0.24 | 80 | 1014.0 |
| 20260904022329 | 78 | 226 | 0.0 | 1.0 | 0.00 | 0.24 | 0.24 | 80 | 1014.0 |
| 20260904022225 | 78 | 226 | 0.0 | 1.0 | 0.00 | 0.24 | 0.24 | 80 | 1014.0 |
| 20260904022216 | 78 | 0.0 | 0.0 | 0.00 | 0.24 | 0.24 | 80 | 1014.0 | |
| 20260904021948 | 78 | 226 | 0.0 | 1.0 | 0.00 | 0.24 | 0.24 | 80 | 1014.0 |
| 20260904021823 | 78 | 0.0 | 0.0 | 0.00 | 0.24 | 0.24 | 80 | 1014.1 | |
| 20260904021719 | 78 | 0.0 | 0.0 | 0.00 | 0.24 | 0.24 | 80 | 1014.2 | |
| 20260904021631 | 78 | 0.0 | 0.0 | 0.00 | 0.24 | 0.24 | 80 | 1014.1 | |
| 20260904021526 | 78 | 226 | 0.0 | 1.0 | 0.00 | 0.24 | 0.24 | 80 | 1014.2 |
| 20260904021421 | 78 | 226 | 0.0 | 1.0 | 0.00 | 0.24 | 0.24 | 80 | 1014.3 |
| 20260904021317 | 78 | 226 | 0.0 | 1.0 | 0.00 | 0.24 | 0.24 | 79 | 1014.2 |
| 20260904021229 | 78 | 226 | 0.0 | 1.0 | 0.00 | 0.24 | 0.24 | 79 | 1014.1 |
| 20260904021144 | 78 | 226 | 0.0 | 1.0 | 0.00 | 0.24 | 0.24 | 79 | 1014.2 |
| 20260904021040 | 78 | 0.0 | 0.0 | 0.00 | 0.24 | 0.24 | 79 | 1014.4 | |
| 20260904020915 | 78 | 0.0 | 0.0 | 0.00 | 0.24 | 0.24 | 79 | 1014.4 | |
| 20260904020827 | 78 | 0.0 | 0.0 | 0.00 | 0.24 | 0.24 | 79 | 1014.5 | |
| 20260904020723 | 78 | 0.0 | 0.0 | 0.00 | 0.24 | 0.24 | 79 | 1014.5 | |
| 20260904020618 | 78 | 0.0 | 0.0 | 0.00 | 0.24 | 0.24 | 79 | 1014.5 | |
| 20260904020550 | 78 | 0.0 | 0.0 | 0.00 | 0.24 | 0.24 | 79 | 1014.5 | |
| 20260904020426 | 78 | 226 | 0.0 | 1.0 | 0.00 | 0.24 | 0.24 | 79 | 1014.5 |
| 20260904020321 | 78 | 0.0 | 0.0 | 0.00 | 0.24 | 0.24 | 79 | 1014.6 | |
| 20260904020217 | 78 | 0.0 | 0.0 | 0.00 | 0.24 | 0.24 | 79 | 1014.5 | |
| 20260904020128 | 78 | 0.0 | 0.0 | 0.00 | 0.24 | 0.24 | 79 | 1014.5 | |
| 20260904020024 | 78 | 0.0 | 0.0 | 0.00 | 0.24 | 0.24 | 79 | 1014.6 | |
| 20260904015919 | 78 | 0.0 | 0.0 | 0.00 | 0.24 | 0.24 | 79 | 1014.6 | |
| 20260904015831 | 78 | 226 | 0.0 | 1.0 | 0.00 | 0.24 | 0.24 | 79 | 1014.5 |
| 20260904015726 | 78 | 0.0 | 0.0 | 0.00 | 0.24 | 0.24 | 79 | 1014.5 | |
| 20260904015622 | 78 | 226 | 0.0 | 1.0 | 0.00 | 0.24 | 0.24 | 79 | 1014.5 |
| 20260904015518 | 78 | 0.0 | 0.0 | 0.00 | 0.24 | 0.24 | 79 | 1014.5 | |
| 20260904015429 | 78 | 0.0 | 0.0 | 0.00 | 0.24 | 0.24 | 79 | 1014.4 | |
| 20260904015325 | 78 | 0.0 | 0.0 | 0.00 | 0.24 | 0.24 | 79 | 1014.5 | |
| 20260904015220 | 78 | 0.0 | 0.0 | 0.00 | 0.24 | 0.24 | 79 | 1014.5 | |
| 20260904015115 | 78 | 0.0 | 0.0 | 0.00 | 0.24 | 0.24 | 79 | 1014.4 | |
| 20260904015047 | 78 | 0.0 | 0.0 | 0.00 | 0.24 | 0.24 | 80 | 1014.5 | |
| 20260904014922 | 78 | 0.0 | 0.0 | 0.00 | 0.24 | 0.24 | 80 | 1014.5 | |
| 20260904014830 | 78 | 0.0 | 0.0 | 0.00 | 0.24 | 0.24 | 80 | 1014.5 | |
| 20260904014645 | 78 | 226 | 0.0 | 1.0 | 0.00 | 0.24 | 0.24 | 80 | 1014.5 |
| 20260904014521 | 78 | 226 | 0.0 | 1.0 | 0.00 | 0.24 | 0.24 | 80 | 1014.5 |
| 20260904014416 | 78 | 226 | 0.0 | 1.0 | 0.00 | 0.24 | 0.24 | 80 | 1014.6 |
| 20260904014328 | 78 | 226 | 1.0 | 2.0 | 0.00 | 0.24 | 0.24 | 80 | 1014.6 |
| 20260904014224 | 78 | 234 | 1.0 | 2.0 | 0.00 | 0.24 | 0.24 | 80 | 1014.7 |
| 20260904014119 | 78 | 240 | 0.0 | 2.0 | 0.00 | 0.24 | 0.24 | 80 | 1014.7 |
| 20260904014055 | 78 | 240 | 0.0 | 1.0 | 0.00 | 0.24 | 0.24 | 80 | 1014.8 |
| 20260904013927 | 78 | 242 | 0.0 | 1.0 | 0.00 | 0.24 | 0.24 | 80 | 1015.0 |
| 20260904013902 | 78 | 243 | 0.0 | 1.0 | 0.00 | 0.24 | 0.24 | 80 | 1014.8 |
| 20260904013717 | 78 | 243 | 1.0 | 1.0 | 0.00 | 0.24 | 0.24 | 80 | 1014.7 |
| 20260904013629 | 78 | 243 | 1.0 | 1.0 | 0.00 | 0.24 | 0.24 | 80 | 1014.9 |
| 20260904013545 | 78 | 243 | 1.0 | 2.0 | 0.00 | 0.24 | 0.24 | 80 | 1015.0 |
| 20260904013440 | 78 | 243 | 1.0 | 1.0 | 0.00 | 0.24 | 0.24 | 81 | 1015.0 |
| 20260904013316 | 78 | 243 | 1.0 | 2.0 | 0.00 | 0.24 | 0.24 | 81 | 1014.8 |
| 20260904013228 | 78 | 243 | 1.0 | 2.0 | 0.00 | 0.24 | 0.24 | 80 | 1014.7 |
| 20260904013123 | 78 | 243 | 1.0 | 1.0 | 0.00 | 0.24 | 0.24 | 80 | 1014.7 |
| 20260904013019 | 78 | 243 | 1.0 | 1.0 | 0.00 | 0.24 | 0.24 | 81 | 1014.7 |
| 20260904012930 | 78 | 243 | 1.0 | 2.0 | 0.00 | 0.24 | 0.24 | 81 | 1014.8 |
| 20260904012826 | 78 | 244 | 0.0 | 1.0 | 0.00 | 0.24 | 0.24 | 80 | 1014.6 |
| 20260904012722 | 78 | 0.0 | 0.0 | 0.00 | 0.24 | 0.24 | 80 | 1014.8 | |
| 20260904012617 | 78 | 0.0 | 0.0 | 0.00 | 0.24 | 0.24 | 80 | 1014.9 | |
| 20260904012529 | 78 | 243 | 0.0 | 1.0 | 0.00 | 0.24 | 0.24 | 80 | 1014.6 |
| 20260904012424 | 78 | 244 | 0.0 | 1.0 | 0.00 | 0.24 | 0.24 | 80 | 1014.7 |
| 20260904012340 | 78 | 243 | 0.0 | 1.0 | 0.00 | 0.24 | 0.24 | 80 | 1014.7 |
| 20260904012215 | 78 | 0.0 | 0.0 | 0.00 | 0.24 | 0.24 | 80 | 1014.8 | |
| 20260904012127 | 78 | 0.0 | 0.0 | 0.00 | 0.24 | 0.24 | 80 | 1014.7 | |
| 20260904012023 | 78 | 0.0 | 0.0 | 0.00 | 0.24 | 0.24 | 80 | 1014.7 | |
| 20260904011958 | 78 | 0.0 | 0.0 | 0.00 | 0.24 | 0.24 | 80 | 1014.7 | |
| 20260904011830 | 78 | 0.0 | 0.0 | 0.00 | 0.24 | 0.24 | 80 | 1014.7 | |
| 20260904011745 | 78 | 0.0 | 0.0 | 0.00 | 0.24 | 0.24 | 80 | 1014.5 | |
| 20260904011621 | 78 | 0.0 | 0.0 | 0.00 | 0.24 | 0.24 | 80 | 1014.5 | |
| 20260904011516 | 78 | 0.0 | 0.0 | 0.00 | 0.24 | 0.24 | 80 | 1014.6 | |
| 20260904011428 | 78 | 0.0 | 0.0 | 0.00 | 0.24 | 0.24 | 80 | 1014.5 | |
| 20260904011324 | 78 | 0.0 | 0.0 | 0.00 | 0.24 | 0.24 | 80 | 1014.4 | |
| 20260904011239 | 78 | 0.0 | 0.0 | 0.00 | 0.24 | 0.24 | 80 | 1014.4 | |
| 20260904011150 | 78 | 243 | 0.0 | 1.0 | 0.00 | 0.24 | 0.24 | 80 | 1014.4 |
| 20260904011026 | 78 | 244 | 0.0 | 1.0 | 0.00 | 0.24 | 0.24 | 80 | 1014.5 |
| 20260904010922 | 78 | 244 | 0.0 | 1.0 | 0.00 | 0.24 | 0.24 | 80 | 1014.6 |
| 20260904010817 | 78 | 0.0 | 0.0 | 0.00 | 0.24 | 0.24 | 80 | 1014.5 | |
| 20260904010729 | 78 | 0.0 | 0.0 | 0.00 | 0.24 | 0.24 | 80 | 1014.4 | |
| 20260904010624 | 78 | 0.0 | 0.0 | 0.00 | 0.24 | 0.24 | 80 | 1014.4 | |
| 20260904010520 | 78 | 0.0 | 0.0 | 0.00 | 0.24 | 0.24 | 80 | 1014.4 | |
| 20260904010415 | 78 | 243 | 0.0 | 1.0 | 0.00 | 0.24 | 0.24 | 79 | 1014.3 |
| 20260904010327 | 78 | 0.0 | 0.0 | 0.00 | 0.24 | 0.24 | 79 | 1014.5 | |
| 20260904010243 | 78 | 244 | 0.0 | 1.0 | 0.00 | 0.24 | 0.24 | 79 | 1014.5 |
| 20260904010118 | 78 | 0.0 | 0.0 | 0.00 | 0.24 | 0.24 | 79 | 1014.4 | |
| 20260904010030 | 78 | 0.0 | 0.0 | 0.00 | 0.24 | 0.24 | 79 | 1014.5 | |
| 20260904005945 | 78 | 0.0 | 0.0 | 0.00 | 0.24 | 0.24 | 79 | 1014.3 | |
| 20260904005821 | 78 | 0.0 | 0.0 | 0.00 | 0.24 | 0.24 | 79 | 1014.5 | |
| 20260904005716 | 78 | 0.0 | 0.0 | 0.00 | 0.24 | 0.24 | 79 | 1014.3 | |
| 20260904005628 | 78 | 0.0 | 0.0 | 0.00 | 0.24 | 0.24 | 79 | 1014.3 | |
| 20260904005524 | 78 | 0.0 | 0.0 | 0.00 | 0.24 | 0.24 | 79 | 1014.4 | |
| 20260904005419 | 78 | 0.0 | 0.0 | 0.00 | 0.24 | 0.24 | 79 | 1014.4 | |
| 20260904005331 | 78 | 0.0 | 0.0 | 0.00 | 0.24 | 0.24 | 79 | 1014.3 | |
| 20260904005226 | 78 | 0.0 | 0.0 | 0.00 | 0.24 | 0.24 | 79 | 1014.4 | |
| 20260904005122 | 78 | 244 | 0.0 | 1.0 | 0.00 | 0.24 | 0.24 | 79 | 1014.4 |
| 20260904005017 | 78 | 243 | 0.0 | 1.0 | 0.00 | 0.24 | 0.24 | 79 | 1014.2 |
| 20260904004929 | 78 | 0.0 | 0.0 | 0.00 | 0.24 | 0.24 | 79 | 1014.3 | |
| 20260904004824 | 78 | 0.0 | 0.0 | 0.00 | 0.24 | 0.24 | 79 | 1014.3 | |
| 20260904004720 | 78 | 0.0 | 0.0 | 0.00 | 0.24 | 0.24 | 79 | 1014.3 | |
| 20260904004615 | 78 | 0.0 | 0.0 | 0.00 | 0.24 | 0.24 | 79 | 1014.3 | |
| 20260904004527 | 78 | 0.0 | 0.0 | 0.00 | 0.24 | 0.24 | 79 | 1014.4 | |
| 20260904004503 | 78 | 0.0 | 0.0 | 0.00 | 0.24 | 0.24 | 79 | 1014.6 | |
| 20260904004319 | 78 | 244 | 1.0 | 1.0 | 0.00 | 0.24 | 0.24 | 79 | 1014.4 |
| 20260904004230 | 78 | 0.0 | 0.0 | 0.00 | 0.24 | 0.24 | 79 | 1014.3 | |
| 20260904004126 | 78 | 0.0 | 0.0 | 0.00 | 0.24 | 0.24 | 79 | 1014.2 | |
| 20260904004041 | 78 | 0.0 | 0.0 | 0.00 | 0.24 | 0.24 | 79 | 1014.2 | |
| 20260904003917 | 78 | 0.0 | 0.0 | 0.00 | 0.24 | 0.24 | 78 | 1014.3 | |
| 20260904003848 | 78 | 0.0 | 0.0 | 0.00 | 0.24 | 0.24 | 78 | 1014.2 | |
| 20260904003724 | 79 | 244 | 0.0 | 1.0 | 0.00 | 0.24 | 0.24 | 79 | 1014.2 |
| 20260904003619 | 79 | 244 | 0.0 | 1.0 | 0.00 | 0.24 | 0.24 | 78 | 1014.2 |
| 20260904003551 | 79 | 0.0 | 0.0 | 0.00 | 0.24 | 0.24 | 78 | 1014.2 | |
| 20260904003427 | 79 | 0.0 | 0.0 | 0.00 | 0.24 | 0.24 | 78 | 1014.3 | |
| 20260904003322 | 79 | 0.0 | 0.0 | 0.00 | 0.24 | 0.24 | 79 | 1014.3 | |
| 20260904003218 | 79 | 244 | 0.0 | 1.0 | 0.00 | 0.24 | 0.24 | 79 | 1014.3 |
| 20260904003129 | 79 | 244 | 0.0 | 1.0 | 0.00 | 0.24 | 0.24 | 78 | 1014.3 |
| 20260904003025 | 79 | 0.0 | 0.0 | 0.00 | 0.24 | 0.24 | 78 | 1014.1 | |
| 20260904002920 | 79 | 0.0 | 0.0 | 0.00 | 0.24 | 0.24 | 78 | 1014.0 | |
| 20260904002816 | 79 | 244 | 0.0 | 1.0 | 0.00 | 0.24 | 0.24 | 78 | 1014.0 |
| 20260904002728 | 79 | 244 | 0.0 | 1.0 | 0.00 | 0.24 | 0.24 | 78 | 1013.9 |
| 20260904002624 | 79 | 244 | 0.0 | 1.0 | 0.00 | 0.24 | 0.24 | 78 | 1013.8 |
| 20260904002519 | 79 | 244 | 0.0 | 1.0 | 0.00 | 0.24 | 0.24 | 78 | 1013.9 |
| 20260904002511 | 79 | 0.0 | 0.0 | 0.00 | 0.24 | 0.24 | 78 | 1013.9 | |
| 20260904002326 | 79 | 0.0 | 0.0 | 0.00 | 0.24 | 0.24 | 78 | 1014.1 | |
| 20260904002242 | 79 | 0.0 | 0.0 | 0.00 | 0.24 | 0.24 | 78 | 1014.2 | |
| 20260904002118 | 79 | 0.0 | 0.0 | 0.00 | 0.24 | 0.24 | 78 | 1013.9 | |
| 20260904002029 | 79 | 0.0 | 0.0 | 0.00 | 0.24 | 0.24 | 78 | 1013.9 | |
| 20260904001924 | 79 | 0.0 | 0.0 | 0.00 | 0.24 | 0.24 | 78 | 1013.9 | |
| 20260904001840 | 79 | 0.0 | 0.0 | 0.00 | 0.24 | 0.24 | 78 | 1013.9 | |
| 20260904001716 | 79 | 0.0 | 0.0 | 0.00 | 0.24 | 0.24 | 78 | 1014.0 | |
| 20260904001627 | 79 | 0.0 | 0.0 | 0.00 | 0.24 | 0.24 | 78 | 1014.1 | |
| 20260904001542 | 79 | 244 | 1.0 | 1.0 | 0.00 | 0.24 | 0.24 | 79 | 1013.9 |
| 20260904001418 | 79 | 244 | 1.0 | 1.0 | 0.00 | 0.24 | 0.24 | 77 | 1013.9 |
| 20260904001350 | 79 | 244 | 0.0 | 1.0 | 0.00 | 0.24 | 0.24 | 77 | 1014.1 |
| 20260904001225 | 79 | 244 | 0.0 | 1.0 | 0.00 | 0.24 | 0.24 | 77 | 1014.3 |
| 20260904001121 | 79 | 0.0 | 0.0 | 0.00 | 0.24 | 0.24 | 77 | 1014.4 | |
| 20260904001036 | 80 | 0.0 | 0.0 | 0.00 | 0.24 | 0.24 | 77 | 1014.4 | |
| 20260904000948 | 80 | 244 | 0.0 | 1.0 | 0.00 | 0.24 | 0.24 | 77 | 1014.3 |
| 20260904000824 | 80 | 244 | 0.0 | 1.0 | 0.00 | 0.24 | 0.24 | 76 | 1014.4 |
| 20260904000719 | 80 | 0.0 | 0.0 | 0.00 | 0.24 | 0.24 | 76 | 1014.4 | |
| 20260904000631 | 80 | 0.0 | 0.0 | 0.00 | 0.24 | 0.24 | 77 | 1014.2 | |
| 20260904000527 | 80 | 0.0 | 0.0 | 0.00 | 0.24 | 0.24 | 77 | 1014.3 | |
| 20260904000422 | 80 | 0.0 | 0.0 | 0.00 | 0.24 | 0.24 | 77 | 1014.1 | |
| 20260904000318 | 80 | 244 | 0.0 | 1.0 | 0.00 | 0.24 | 0.24 | 76 | 1014.0 |
| 20260904000229 | 80 | 0.0 | 0.0 | 0.00 | 0.24 | 0.24 | 76 | 1014.3 | |
| 20260904000125 | 80 | 0.0 | 0.0 | 0.00 | 0.24 | 0.24 | 76 | 1014.3 | |
| 20260904000021 | 80 | 0.0 | 0.0 | 0.00 | 0.24 | 0.24 | 76 | 1014.3 | |
| 20260903235916 | 80 | 0.0 | 0.0 | 0.00 | 0.24 | 0.24 | 76 | 1014.3 | |
| 20260903235828 | 80 | 0.0 | 0.0 | 0.00 | 0.24 | 0.24 | 76 | 1014.2 | |
| 20260903235723 | 80 | 0.0 | 0.0 | 0.00 | 0.24 | 0.24 | 76 | 1014.2 | |
| 20260903235619 | 80 | 0.0 | 0.0 | 0.00 | 0.24 | 0.24 | 76 | 1014.2 | |
| 20260903235531 | 80 | 0.0 | 0.0 | 0.00 | 0.24 | 0.24 | 76 | 1014.1 | |
| 20260903235426 | 80 | 0.0 | 0.0 | 0.00 | 0.24 | 0.24 | 76 | 1014.1 | |
| 20260903235322 | 80 | 0.0 | 0.0 | 0.00 | 0.24 | 0.24 | 76 | 1014.1 | |
| 20260903235217 | 80 | 0.0 | 0.0 | 0.00 | 0.24 | 0.24 | 76 | 1014.1 | |
| 20260903235129 | 80 | 0.0 | 0.0 | 0.00 | 0.24 | 0.24 | 76 | 1014.1 | |
| 20260903235025 | 80 | 0.0 | 0.0 | 0.00 | 0.24 | 0.24 | 76 | 1014.1 | |
| 20260903234920 | 80 | 0.0 | 0.0 | 0.00 | 0.24 | 0.24 | 75 | 1014.1 | |
| 20260903234816 | 81 | 0.0 | 0.0 | 0.00 | 0.24 | 0.24 | 75 | 1014.1 | |
| 20260903234727 | 81 | 0.0 | 0.0 | 0.00 | 0.24 | 0.24 | 75 | 1014.0 | |
| 20260903234623 | 81 | 0.0 | 0.0 | 0.00 | 0.24 | 0.24 | 75 | 1014.0 | |
| 20260903234519 | 81 | 244 | 0.0 | 1.0 | 0.00 | 0.24 | 0.24 | 75 | 1014.0 |
| 20260903234430 | 81 | 243 | 1.0 | 1.0 | 0.00 | 0.24 | 0.24 | 75 | 1013.9 |
| 20260903234326 | 81 | 244 | 1.0 | 1.0 | 0.00 | 0.24 | 0.24 | 75 | 1014.0 |
| 20260903234221 | 81 | 244 | 0.0 | 1.0 | 0.00 | 0.24 | 0.24 | 75 | 1014.0 |
| 20260903234116 | 81 | 0.0 | 0.0 | 0.00 | 0.24 | 0.24 | 74 | 1013.9 | |
| 20260903234028 | 81 | 0.0 | 0.0 | 0.00 | 0.24 | 0.24 | 74 | 1013.9 | |
| 20260903233924 | 81 | 0.0 | 0.0 | 0.00 | 0.24 | 0.24 | 74 | 1013.9 | |
| 20260903233839 | 81 | 0.0 | 0.0 | 0.00 | 0.24 | 0.24 | 74 | 1013.9 | |
| 20260903233715 | 81 | 0.0 | 0.0 | 0.00 | 0.24 | 0.24 | 74 | 1013.6 | |
| 20260903233647 | 82 | 0.0 | 0.0 | 0.00 | 0.24 | 0.24 | 74 | 1013.8 | |
| 20260903233522 | 82 | 0.0 | 0.0 | 0.00 | 0.24 | 0.24 | 74 | 1013.9 | |
| 20260903233418 | 82 | 244 | 0.0 | 1.0 | 0.00 | 0.24 | 0.24 | 74 | 1013.7 |
| 20260903233329 | 82 | 0.0 | 0.0 | 0.00 | 0.24 | 0.24 | 74 | 1013.9 | |
| 20260903233225 | 82 | 0.0 | 0.0 | 0.00 | 0.24 | 0.24 | 74 | 1013.9 | |
| 20260903233121 | 82 | 243 | 0.0 | 1.0 | 0.00 | 0.24 | 0.24 | 74 | 1013.8 |
| 20260903233016 | 82 | 0.0 | 0.0 | 0.00 | 0.24 | 0.24 | 73 | 1013.8 | |
| 20260903232948 | 82 | 0.0 | 0.0 | 0.00 | 0.24 | 0.24 | 73 | 1013.9 | |
| 20260903232824 | 82 | 0.0 | 0.0 | 0.00 | 0.24 | 0.24 | 73 | 1013.8 | |
| 20260903232719 | 82 | 0.0 | 0.0 | 0.00 | 0.24 | 0.24 | 73 | 1013.7 | |
| 20260903232651 | 82 | 0.0 | 0.0 | 0.00 | 0.24 | 0.24 | 73 | 1013.8 | |
| 20260903232526 | 83 | 0.0 | 0.0 | 0.00 | 0.24 | 0.24 | 73 | 1013.8 | |
| 20260903232421 | 83 | 0.0 | 0.0 | 0.00 | 0.24 | 0.24 | 73 | 1013.8 | |
| 20260903232317 | 83 | 0.0 | 0.0 | 0.00 | 0.24 | 0.24 | 73 | 1013.6 | |
| 20260903232229 | 83 | 0.0 | 0.0 | 0.00 | 0.24 | 0.24 | 73 | 1013.7 | |
| 20260903232124 | 83 | 0.0 | 0.0 | 0.00 | 0.24 | 0.24 | 73 | 1013.7 | |
| 20260903232020 | 83 | 244 | 0.0 | 1.0 | 0.00 | 0.24 | 0.24 | 73 | 1013.6 |
| 20260903231936 | 83 | 0.0 | 0.0 | 0.00 | 0.24 | 0.24 | 73 | 1013.8 | |
| 20260903231827 | 83 | 0.0 | 0.0 | 0.00 | 0.24 | 0.24 | 72 | 1013.7 | |
| 20260903231723 | 83 | 0.0 | 0.0 | 0.00 | 0.24 | 0.24 | 72 | 1013.8 | |
| 20260903231619 | 83 | 0.0 | 0.0 | 0.00 | 0.24 | 0.24 | 72 | 1013.7 | |
| 20260903231530 | 83 | 0.0 | 0.0 | 0.00 | 0.24 | 0.24 | 72 | 1013.7 | |
| 20260903231426 | 83 | 0.0 | 0.0 | 0.00 | 0.24 | 0.24 | 72 | 1013.6 | |
| 20260903231321 | 83 | 0.0 | 0.0 | 0.00 | 0.24 | 0.24 | 72 | 1013.6 | |
| 20260903231217 | 83 | 0.0 | 0.0 | 0.00 | 0.24 | 0.24 | 71 | 1013.7 | |
| 20260903231128 | 84 | 0.0 | 0.0 | 0.00 | 0.24 | 0.24 | 71 | 1013.9 | |
| 20260903231024 | 84 | 0.0 | 0.0 | 0.00 | 0.24 | 0.24 | 72 | 1013.8 | |
| 20260903230919 | 84 | 0.0 | 0.0 | 0.00 | 0.24 | 0.24 | 71 | 1013.8 | |
| 20260903230831 | 84 | 0.0 | 0.0 | 0.00 | 0.24 | 0.24 | 71 | 1013.8 | |
| 20260903230727 | 84 | 0.0 | 0.0 | 0.00 | 0.24 | 0.24 | 71 | 1013.7 | |
| 20260903230622 | 84 | 244 | 0.0 | 1.0 | 0.00 | 0.24 | 0.24 | 71 | 1013.7 |
| 20260903230518 | 84 | 0.0 | 0.0 | 0.00 | 0.24 | 0.24 | 71 | 1013.7 | |
| 20260903230429 | 84 | 244 | 0.0 | 1.0 | 0.00 | 0.24 | 0.24 | 71 | 1013.8 |
| 20260903230325 | 84 | 243 | 1.0 | 1.0 | 0.00 | 0.24 | 0.24 | 71 | 1013.9 |
| 20260903230240 | 85 | 243 | 0.0 | 1.0 | 0.00 | 0.24 | 0.24 | 71 | 1013.9 |
| 20260903230116 | 85 | 244 | 0.0 | 1.0 | 0.00 | 0.24 | 0.24 | 71 | 1013.7 |
| 20260903230027 | 85 | 244 | 0.0 | 1.0 | 0.00 | 0.24 | 0.24 | 71 | 1013.8 |
| 20260903225923 | 85 | 244 | 0.0 | 1.0 | 0.00 | 0.24 | 0.24 | 71 | 1013.8 |
| 20260903225819 | 85 | 0.0 | 0.0 | 0.00 | 0.24 | 0.24 | 71 | 1013.8 | |
| 20260903225731 | 85 | 0.0 | 0.0 | 0.00 | 0.24 | 0.24 | 71 | 1013.8 | |
| 20260903225626 | 85 | 0.0 | 0.0 | 0.00 | 0.24 | 0.24 | 71 | 1013.9 | |
| 20260903225521 | 85 | 0.0 | 0.0 | 0.00 | 0.24 | 0.24 | 70 | 1013.9 | |
| 20260903225417 | 85 | 0.0 | 0.0 | 0.00 | 0.24 | 0.24 | 70 | 1013.8 | |
| 20260903225329 | 85 | 0.0 | 0.0 | 0.00 | 0.24 | 0.24 | 71 | 1014.0 | |
| 20260903225244 | 85 | 0.0 | 0.0 | 0.00 | 0.24 | 0.24 | 70 | 1013.9 | |
| 20260903225120 | 85 | 0.0 | 0.0 | 0.00 | 0.24 | 0.24 | 71 | 1014.0 | |
| 20260903225015 | 85 | 0.0 | 0.0 | 0.00 | 0.24 | 0.24 | 71 | 1013.8 | |
| 20260903224927 | 85 | 243 | 0.0 | 1.0 | 0.00 | 0.24 | 0.24 | 70 | 1013.9 |
| 20260903224822 | 85 | 243 | 0.0 | 1.0 | 0.00 | 0.24 | 0.24 | 70 | 1013.9 |
| 20260903224718 | 85 | 243 | 0.0 | 1.0 | 0.00 | 0.24 | 0.24 | 69 | 1013.8 |
| 20260903224650 | 85 | 0.0 | 0.0 | 0.00 | 0.24 | 0.24 | 69 | 1013.9 | |
| 20260903224525 | 85 | 243 | 0.0 | 1.0 | 0.00 | 0.24 | 0.24 | 70 | 1013.7 |
| 20260903224421 | 85 | 0.0 | 0.0 | 0.00 | 0.24 | 0.24 | 70 | 1013.7 | |
| 20260903224317 | 85 | 0.0 | 0.0 | 0.00 | 0.24 | 0.24 | 70 | 1013.8 | |
| 20260903224228 | 85 | 0.0 | 0.0 | 0.00 | 0.24 | 0.24 | 70 | 1013.7 | |
| 20260903224124 | 85 | 0.0 | 0.0 | 0.00 | 0.24 | 0.24 | 69 | 1013.7 | |
| 20260903224019 | 85 | 0.0 | 0.0 | 0.00 | 0.24 | 0.24 | 69 | 1013.7 | |
| 20260903223931 | 86 | 244 | 0.0 | 1.0 | 0.00 | 0.24 | 0.24 | 68 | 1013.9 |
| 20260903223826 | 86 | 244 | 0.0 | 1.0 | 0.00 | 0.24 | 0.24 | 70 | 1013.7 |
| 20260903223742 | 86 | 0.0 | 0.0 | 0.00 | 0.24 | 0.24 | 69 | 1013.8 | |
| 20260903223618 | 86 | 0.0 | 0.0 | 0.00 | 0.24 | 0.24 | 70 | 1013.8 | |
| 20260903223529 | 86 | 0.0 | 0.0 | 0.00 | 0.24 | 0.24 | 70 | 1013.8 | |
| 20260903223425 | 86 | 0.0 | 0.0 | 0.00 | 0.24 | 0.24 | 69 | 1013.8 | |
| 20260903223320 | 86 | 0.0 | 0.0 | 0.00 | 0.24 | 0.24 | 69 | 1013.8 | |
| 20260903223216 | 86 | 0.0 | 0.0 | 0.00 | 0.24 | 0.24 | 69 | 1013.9 | |
| 20260903223128 | 86 | 0.0 | 0.0 | 0.00 | 0.24 | 0.24 | 69 | 1014.0 | |
| 20260903223044 | 86 | 0.0 | 0.0 | 0.00 | 0.24 | 0.24 | 69 | 1014.0 | |
| 20260903222919 | 86 | 0.0 | 0.0 | 0.00 | 0.24 | 0.24 | 69 | 1014.1 | |
| 20260903222831 | 87 | 0.0 | 0.0 | 0.00 | 0.24 | 0.24 | 69 | 1013.8 | |
| 20260903222726 | 87 | 0.0 | 0.0 | 0.00 | 0.24 | 0.24 | 68 | 1014.0 | |
| 20260903222622 | 87 | 0.0 | 0.0 | 0.00 | 0.24 | 0.24 | 69 | 1014.0 | |
| 20260903222517 | 87 | 0.0 | 0.0 | 0.00 | 0.24 | 0.24 | 68 | 1014.0 | |
| 20260903222429 | 87 | 0.0 | 0.0 | 0.00 | 0.24 | 0.24 | 69 | 1013.9 | |
| 20260903222325 | 87 | 0.0 | 0.0 | 0.00 | 0.24 | 0.24 | 68 | 1014.0 | |
| 20260903222220 | 87 | 0.0 | 0.0 | 0.00 | 0.24 | 0.24 | 68 | 1013.9 | |
| 20260903222115 | 87 | 0.0 | 0.0 | 0.00 | 0.24 | 0.24 | 69 | 1013.9 | |
| 20260903222027 | 87 | 0.0 | 0.0 | 0.00 | 0.24 | 0.24 | 69 | 1014.0 | |
| 20260903221922 | 87 | 0.0 | 0.0 | 0.00 | 0.24 | 0.24 | 69 | 1014.0 | |
| 20260903221818 | 87 | 0.0 | 0.0 | 0.00 | 0.24 | 0.24 | 68 | 1014.0 | |
| 20260903221729 | 87 | 0.0 | 0.0 | 0.00 | 0.24 | 0.24 | 68 | 1014.2 | |
| 20260903221625 | 87 | 0.0 | 0.0 | 0.00 | 0.24 | 0.24 | 68 | 1014.2 | |
| 20260903221521 | 87 | 0.0 | 0.0 | 0.00 | 0.24 | 0.24 | 68 | 1013.9 | |
| 20260903221416 | 87 | 0.0 | 0.0 | 0.00 | 0.24 | 0.24 | 68 | 1014.0 | |
| 20260903221328 | 88 | 244 | 0.0 | 1.0 | 0.00 | 0.24 | 0.24 | 68 | 1013.9 |
| 20260903221224 | 88 | 0.0 | 0.0 | 0.00 | 0.24 | 0.24 | 68 | 1014.0 | |
| 20260903221119 | 88 | 0.0 | 0.0 | 0.00 | 0.24 | 0.24 | 67 | 1013.9 | |
| 20260903221031 | 88 | 0.0 | 0.0 | 0.00 | 0.24 | 0.24 | 66 | 1013.9 | |
| 20260903220926 | 88 | 0.0 | 0.0 | 0.00 | 0.24 | 0.24 | 67 | 1014.0 | |
| 20260903220822 | 88 | 0.0 | 0.0 | 0.00 | 0.24 | 0.24 | 67 | 1014.0 | |
| 20260903220717 | 88 | 0.0 | 0.0 | 0.00 | 0.24 | 0.24 | 68 | 1014.0 | |
| 20260903220629 | 88 | 0.0 | 0.0 | 0.00 | 0.24 | 0.24 | 68 | 1014.0 | |
| 20260903220525 | 88 | 0.0 | 0.0 | 0.00 | 0.24 | 0.24 | 67 | 1014.1 | |
| 20260903220420 | 88 | 0.0 | 0.0 | 0.00 | 0.24 | 0.24 | 67 | 1014.2 | |
| 20260903220336 | 87 | 0.0 | 0.0 | 0.00 | 0.24 | 0.24 | 67 | 1013.9 | |
| 20260903220228 | 88 | 0.0 | 0.0 | 0.00 | 0.24 | 0.24 | 65 | 1013.8 | |
| 20260903220143 | 88 | 244 | 1.0 | 1.0 | 0.00 | 0.24 | 0.24 | 63 | 1014.0 |
| 20260903220019 | 87 | 245 | 1.0 | 1.0 | 0.00 | 0.24 | 0.24 | 64 | 1013.8 |
| 20260903215931 | 87 | 244 | 0.0 | 1.0 | 0.00 | 0.24 | 0.24 | 67 | 1013.7 |
| 20260903215826 | 88 | 0.0 | 0.0 | 0.00 | 0.24 | 0.24 | 67 | 1013.8 | |
| 20260903215722 | 87 | 244 | 0.0 | 1.0 | 0.00 | 0.24 | 0.24 | 66 | 1013.9 |
| 20260903215617 | 88 | 244 | 0.0 | 1.0 | 0.00 | 0.24 | 0.24 | 65 | 1013.9 |
| 20260903215529 | 88 | 245 | 0.0 | 1.0 | 0.00 | 0.24 | 0.24 | 65 | 1013.9 |
| 20260903215425 | 88 | 245 | 1.0 | 1.0 | 0.00 | 0.24 | 0.24 | 64 | 1013.8 |
| 20260903215320 | 88 | 245 | 0.0 | 1.0 | 0.00 | 0.24 | 0.24 | 66 | 1013.9 |
| 20260903215216 | 88 | 0.0 | 0.0 | 0.00 | 0.24 | 0.24 | 66 | 1013.9 | |
| 20260903215128 | 88 | 0.0 | 0.0 | 0.00 | 0.24 | 0.24 | 66 | 1013.9 | |
| 20260903215043 | 88 | 0.0 | 0.0 | 0.00 | 0.24 | 0.24 | 65 | 1013.9 | |
| 20260903214919 | 88 | 245 | 0.0 | 1.0 | 0.00 | 0.24 | 0.24 | 66 | 1013.9 |
| 20260903214830 | 88 | 0.0 | 0.0 | 0.00 | 0.24 | 0.24 | 65 | 1013.8 | |
| 20260903214725 | 88 | 245 | 0.0 | 1.0 | 0.00 | 0.24 | 0.24 | 63 | 1013.9 |
| 20260903214621 | 88 | 245 | 0.0 | 1.0 | 0.00 | 0.24 | 0.24 | 61 | 1014.0 |
| 20260903214517 | 89 | 245 | 0.0 | 1.0 | 0.00 | 0.24 | 0.24 | 62 | 1013.8 |
| 20260903214428 | 89 | 245 | 0.0 | 1.0 | 0.00 | 0.24 | 0.24 | 65 | 1013.6 |
| 20260903214324 | 89 | 245 | 0.0 | 1.0 | 0.00 | 0.24 | 0.24 | 65 | 1013.7 |
| 20260903214239 | 89 | 0.0 | 0.0 | 0.00 | 0.24 | 0.24 | 64 | 1013.7 | |
| 20260903214115 | 89 | 0.0 | 0.0 | 0.00 | 0.24 | 0.24 | 65 | 1013.7 | |
| 20260903214027 | 89 | 245 | 0.0 | 1.0 | 0.00 | 0.24 | 0.24 | 63 | 1013.7 |
| 20260903213922 | 89 | 245 | 1.0 | 1.0 | 0.00 | 0.24 | 0.24 | 62 | 1013.8 |
| 20260903213838 | 89 | 246 | 0.0 | 1.0 | 0.00 | 0.24 | 0.24 | 61 | 1013.9 |
| 20260903213730 | 89 | 245 | 0.0 | 1.0 | 0.00 | 0.24 | 0.24 | 58 | 1013.7 |
| 20260903213645 | 89 | 246 | 1.0 | 2.0 | 0.00 | 0.24 | 0.24 | 59 | 1013.6 |
| 20260903213521 | 89 | 246 | 1.0 | 1.0 | 0.00 | 0.24 | 0.24 | 66 | 1013.6 |
| 20260903213416 | 89 | 246 | 0.0 | 1.0 | 0.00 | 0.24 | 0.24 | 65 | 1013.6 |
| 20260903213408 | 89 | 246 | 0.0 | 1.0 | 0.00 | 0.24 | 0.24 | 63 | 1013.8 |
| 20260903213244 | 89 | 246 | 0.0 | 1.0 | 0.00 | 0.24 | 0.24 | 59 | 1013.7 |
| 20260903213119 | 89 | 247 | 2.0 | 3.0 | 0.00 | 0.24 | 0.24 | 60 | 1013.9 |
| 20260903213031 | 89 | 253 | 1.0 | 2.0 | 0.00 | 0.24 | 0.24 | 59 | 1013.8 |
| 20260903212927 | 89 | 277 | 2.0 | 2.0 | 0.00 | 0.24 | 0.24 | 59 | 1013.9 |
| 20260903212822 | 89 | 277 | 1.0 | 3.0 | 0.00 | 0.24 | 0.24 | 62 | 1013.7 |
| 20260903212718 | 89 | 295 | 2.0 | 3.0 | 0.00 | 0.24 | 0.24 | 62 | 1013.6 |
| 20260903212629 | 89 | 256 | 2.0 | 3.0 | 0.00 | 0.24 | 0.24 | 62 | 1013.7 |
| 20260903212525 | 89 | 252 | 0.0 | 1.0 | 0.00 | 0.24 | 0.24 | 62 | 1013.7 |
| 20260903212421 | 89 | 251 | 1.0 | 2.0 | 0.00 | 0.24 | 0.24 | 60 | 1013.9 |
| 20260903212316 | 88 | 258 | 3.0 | 4.0 | 0.00 | 0.24 | 0.24 | 59 | 1013.8 |
| 20260903212228 | 88 | 248 | 2.0 | 4.0 | 0.00 | 0.24 | 0.24 | 61 | 1013.7 |
| 20260903212144 | 88 | 239 | 2.0 | 2.0 | 0.00 | 0.24 | 0.24 | 65 | 1013.7 |
| 20260903212019 | 88 | 236 | 1.0 | 1.0 | 0.00 | 0.24 | 0.24 | 66 | 1013.7 |
| 20260903211931 | 88 | 232 | 1.0 | 1.0 | 0.00 | 0.24 | 0.24 | 63 | 1013.9 |
| 20260903211827 | 88 | 234 | 1.0 | 2.0 | 0.00 | 0.24 | 0.24 | 61 | 1013.9 |
| 20260903211722 | 87 | 235 | 1.0 | 2.0 | 0.00 | 0.24 | 0.24 | 60 | 1013.9 |
| 20260903211618 | 87 | 231 | 1.0 | 3.0 | 0.00 | 0.24 | 0.24 | 60 | 1013.7 |
| 20260903211550 | 87 | 231 | 1.0 | 2.0 | 0.00 | 0.24 | 0.24 | 61 | 1013.9 |
| 20260903211425 | 87 | 232 | 1.0 | 2.0 | 0.00 | 0.24 | 0.24 | 61 | 1013.7 |
| 20260903211340 | 87 | 254 | 2.0 | 3.0 | 0.00 | 0.24 | 0.24 | 60 | 1013.7 |
| 20260903211216 | 87 | 252 | 3.0 | 4.0 | 0.00 | 0.24 | 0.24 | 58 | 1013.7 |
| 20260903211128 | 87 | 228 | 4.0 | 7.0 | 0.00 | 0.24 | 0.24 | 58 | 1014.0 |
| 20260903211023 | 87 | 239 | 3.0 | 4.0 | 0.00 | 0.24 | 0.24 | 59 | 1013.8 |
| 20260903210919 | 87 | 274 | 2.0 | 4.0 | 0.00 | 0.24 | 0.24 | 59 | 1013.8 |
| 20260903210831 | 87 | 262 | 3.0 | 4.0 | 0.00 | 0.24 | 0.24 | 59 | 1013.8 |
| 20260903210726 | 87 | 309 | 1.0 | 2.0 | 0.00 | 0.24 | 0.24 | 61 | 1013.8 |
| 20260903210642 | 87 | 232 | 1.0 | 2.0 | 0.00 | 0.24 | 0.24 | 59 | 1013.8 |
| 20260903210517 | 87 | 232 | 1.0 | 4.0 | 0.00 | 0.24 | 0.24 | 57 | 1013.8 |
| 20260903210429 | 87 | 235 | 3.0 | 6.0 | 0.00 | 0.24 | 0.24 | 59 | 1013.9 |
| 20260903210345 | 87 | 242 | 3.0 | 4.0 | 0.00 | 0.24 | 0.24 | 59 | 1013.9 |
| 20260903210220 | 87 | 250 | 1.0 | 1.0 | 0.00 | 0.24 | 0.24 | 59 | 1013.9 |
| 20260903210156 | 87 | 233 | 4.0 | 9.0 | 0.00 | 0.24 | 0.24 | 60 | 1013.8 |
| 20260903210047 | 87 | 234 | 3.0 | 6.0 | 0.00 | 0.24 | 0.24 | 59 | 1014.0 |
| 20260903205923 | 87 | 243 | 4.0 | 6.0 | 0.00 | 0.24 | 0.24 | 60 | 1014.0 |
| 20260903205819 | 87 | 245 | 2.0 | 3.0 | 0.00 | 0.24 | 0.24 | 60 | 1013.9 |
| 20260903205730 | 87 | 247 | 3.0 | 6.0 | 0.00 | 0.24 | 0.24 | 61 | 1014.1 |
| 20260903205626 | 87 | 252 | 3.0 | 6.0 | 0.00 | 0.24 | 0.24 | 61 | 1014.0 |
| 20260903205521 | 87 | 297 | 5.0 | 7.0 | 0.00 | 0.24 | 0.24 | 60 | 1014.0 |
| 20260903205417 | 87 | 255 | 5.0 | 8.0 | 0.00 | 0.24 | 0.24 | 60 | 1014.1 |
| 20260903205328 | 87 | 245 | 2.0 | 4.0 | 0.00 | 0.24 | 0.24 | 64 | 1014.0 |
| 20260903205224 | 86 | 238 | 2.0 | 6.0 | 0.00 | 0.24 | 0.24 | 61 | 1014.0 |
| 20260903205140 | 86 | 241 | 3.0 | 6.0 | 0.00 | 0.24 | 0.24 | 59 | 1014.0 |
| 20260903205035 | 86 | 241 | 2.0 | 4.0 | 0.00 | 0.24 | 0.24 | 62 | 1014.1 |
| 20260903204927 | 86 | 227 | 4.0 | 6.0 | 0.00 | 0.24 | 0.24 | 60 | 1014.0 |
| 20260903204822 | 86 | 241 | 3.0 | 4.0 | 0.00 | 0.24 | 0.24 | 63 | 1014.0 |
| 20260903204718 | 86 | 243 | 1.0 | 2.0 | 0.00 | 0.24 | 0.24 | 65 | 1013.9 |
| 20260903204630 | 86 | 237 | 1.0 | 1.0 | 0.00 | 0.24 | 0.24 | 64 | 1014.0 |
| 20260903204525 | 86 | 228 | 2.0 | 3.0 | 0.00 | 0.24 | 0.24 | 65 | 1014.0 |
| 20260903204420 | 86 | 245 | 1.0 | 2.0 | 0.00 | 0.24 | 0.24 | 64 | 1013.7 |
| 20260903204316 | 86 | 284 | 1.0 | 2.0 | 0.00 | 0.24 | 0.24 | 64 | 1013.8 |
| 20260903204248 | 86 | 229 | 2.0 | 3.0 | 0.00 | 0.24 | 0.24 | 63 | 1014.0 |
| 20260903204123 | 86 | 187 | 2.0 | 3.0 | 0.00 | 0.24 | 0.24 | 64 | 1013.9 |
| 20260903204038 | 86 | 193 | 2.0 | 6.0 | 0.00 | 0.24 | 0.24 | 63 | 1014.0 |
| 20260903203929 | 86 | 225 | 2.0 | 4.0 | 0.00 | 0.24 | 0.24 | 62 | 1013.8 |
| 20260903203905 | 86 | 261 | 2.0 | 4.0 | 0.00 | 0.24 | 0.24 | 63 | 1013.8 |
| 20260903203721 | 85 | 259 | 2.0 | 4.0 | 0.00 | 0.24 | 0.24 | 64 | 1013.8 |
| 20260903203616 | 85 | 243 | 2.0 | 3.0 | 0.00 | 0.24 | 0.24 | 64 | 1013.8 |
| 20260903203528 | 85 | 244 | 1.0 | 4.0 | 0.00 | 0.24 | 0.24 | 63 | 1013.7 |
| 20260903203423 | 85 | 249 | 3.0 | 6.0 | 0.00 | 0.24 | 0.24 | 63 | 1013.7 |
| 20260903203339 | 85 | 190 | 2.0 | 3.0 | 0.00 | 0.24 | 0.24 | 65 | 1013.6 |
| 20260903203231 | 85 | 245 | 1.0 | 2.0 | 0.00 | 0.24 | 0.24 | 64 | 1013.6 |
| 20260903203126 | 85 | 225 | 1.0 | 2.0 | 0.00 | 0.24 | 0.24 | 64 | 1013.7 |
| 20260903203021 | 85 | 256 | 2.0 | 3.0 | 0.00 | 0.24 | 0.24 | 62 | 1013.7 |
| 20260903202937 | 85 | 242 | 4.0 | 4.0 | 0.00 | 0.24 | 0.24 | 63 | 1013.9 |
| 20260903202829 | 85 | 270 | 3.0 | 6.0 | 0.00 | 0.24 | 0.24 | 65 | 1013.8 |
| 20260903202724 | 85 | 248 | 2.0 | 2.0 | 0.00 | 0.24 | 0.24 | 65 | 1013.8 |
| 20260903202640 | 85 | 240 | 1.0 | 1.0 | 0.00 | 0.24 | 0.24 | 64 | 1013.7 |
| 20260903202535 | 85 | 233 | 1.0 | 3.0 | 0.00 | 0.24 | 0.24 | 64 | 1013.9 |
| 20260903202427 | 85 | 235 | 1.0 | 3.0 | 0.00 | 0.24 | 0.24 | 64 | 1013.8 |
| 20260903202322 | 85 | 240 | 3.0 | 3.0 | 0.00 | 0.24 | 0.24 | 65 | 1013.9 |
| 20260903202218 | 85 | 273 | 2.0 | 3.0 | 0.00 | 0.24 | 0.24 | 65 | 1013.9 |
| 20260903202130 | 85 | 313 | 2.0 | 3.0 | 0.00 | 0.24 | 0.24 | 65 | 1013.9 |
| 20260903202045 | 85 | 299 | 2.0 | 3.0 | 0.00 | 0.24 | 0.24 | 66 | 1013.9 |
| 20260903201941 | 85 | 260 | 4.0 | 4.0 | 0.00 | 0.24 | 0.24 | 64 | 1013.8 |
| 20260903201816 | 85 | 264 | 2.0 | 6.0 | 0.00 | 0.24 | 0.24 | 64 | 1013.9 |
| 20260903201728 | 85 | 245 | 2.0 | 4.0 | 0.00 | 0.24 | 0.24 | 64 | 1013.8 |
| 20260903201623 | 85 | 250 | 3.0 | 4.0 | 0.00 | 0.24 | 0.24 | 63 | 1013.8 |
| 20260903201519 | 85 | 275 | 2.0 | 2.0 | 0.00 | 0.24 | 0.24 | 64 | 1013.7 |
| 20260903201431 | 85 | 227 | 2.0 | 3.0 | 0.00 | 0.24 | 0.24 | 65 | 1013.9 |
| 20260903201326 | 84 | 338 | 1.0 | 3.0 | 0.00 | 0.24 | 0.24 | 63 | 1013.8 |
| 20260903201222 | 84 | 263 | 3.0 | 6.0 | 0.00 | 0.24 | 0.24 | 63 | 1013.8 |
| 20260903201117 | 84 | 249 | 2.0 | 3.0 | 0.00 | 0.24 | 0.24 | 63 | 1013.9 |
| 20260903201029 | 84 | 272 | 2.0 | 4.0 | 0.00 | 0.24 | 0.24 | 64 | 1013.8 |
| 20260903200924 | 84 | 258 | 3.0 | 4.0 | 0.00 | 0.24 | 0.24 | 64 | 1013.8 |
| 20260903200820 | 84 | 232 | 1.0 | 3.0 | 0.00 | 0.24 | 0.24 | 64 | 1013.8 |
| 20260903200715 | 84 | 230 | 0.0 | 1.0 | 0.00 | 0.24 | 0.24 | 63 | 1013.8 |
| 20260903200628 | 84 | 231 | 3.0 | 6.0 | 0.00 | 0.24 | 0.24 | 63 | 1013.8 |
| 20260903200522 | 84 | 270 | 4.0 | 8.0 | 0.00 | 0.24 | 0.24 | 64 | 1013.8 |
| 20260903200418 | 84 | 244 | 2.0 | 4.0 | 0.00 | 0.24 | 0.24 | 65 | 1014.0 |
| 20260903200330 | 84 | 252 | 3.0 | 4.0 | 0.00 | 0.24 | 0.24 | 67 | 1014.1 |
| 20260903200225 | 84 | 251 | 2.0 | 4.0 | 0.00 | 0.24 | 0.24 | 66 | 1013.9 |
| 20260903200121 | 84 | 214 | 2.0 | 4.0 | 0.00 | 0.24 | 0.24 | 65 | 1013.9 |
| 20260903200016 | 84 | 198 | 2.0 | 3.0 | 0.00 | 0.24 | 0.24 | 67 | 1013.8 |
| 20260903195928 | 84 | 235 | 2.0 | 2.0 | 0.00 | 0.24 | 0.24 | 66 | 1013.9 |
| 20260903195824 | 84 | 234 | 2.0 | 3.0 | 0.00 | 0.24 | 0.24 | 66 | 1014.1 |
| 20260903195759 | 84 | 167 | 2.0 | 2.0 | 0.00 | 0.24 | 0.24 | 65 | 1014.1 |
| 20260903195631 | 84 | 222 | 2.0 | 4.0 | 0.00 | 0.24 | 0.24 | 65 | 1013.9 |
| 20260903195526 | 84 | 189 | 3.0 | 7.0 | 0.00 | 0.24 | 0.24 | 65 | 1013.9 |
| 20260903195442 | 84 | 209 | 2.0 | 6.0 | 0.00 | 0.24 | 0.24 | 65 | 1014.0 |
| 20260903195318 | 84 | 250 | 2.0 | 4.0 | 0.00 | 0.24 | 0.24 | 64 | 1014.0 |
| 20260903195229 | 84 | 236 | 2.0 | 4.0 | 0.00 | 0.24 | 0.24 | 64 | 1014.1 |
| 20260903195125 | 84 | 237 | 3.0 | 3.0 | 0.00 | 0.24 | 0.24 | 64 | 1013.9 |
| 20260903195021 | 84 | 303 | 4.0 | 6.0 | 0.00 | 0.24 | 0.24 | 63 | 1014.0 |
| 20260903194916 | 84 | 251 | 4.0 | 6.0 | 0.00 | 0.24 | 0.24 | 64 | 1014.0 |
| 20260903194828 | 84 | 249 | 4.0 | 6.0 | 0.00 | 0.24 | 0.24 | 65 | 1014.0 |
| 20260903194723 | 84 | 241 | 2.0 | 3.0 | 0.00 | 0.24 | 0.24 | 66 | 1013.9 |
| 20260903194659 | 84 | 234 | 1.0 | 2.0 | 0.00 | 0.24 | 0.24 | 63 | 1013.9 |
| 20260903194550 | 84 | 233 | 2.0 | 8.0 | 0.00 | 0.24 | 0.24 | 64 | 1013.9 |
| 20260903194446 | 84 | 228 | 2.0 | 6.0 | 0.00 | 0.24 | 0.24 | 65 | 1014.0 |
| 20260903194322 | 84 | 204 | 2.0 | 3.0 | 0.00 | 0.24 | 0.24 | 63 | 1014.1 |
| 20260903194218 | 84 | 247 | 3.0 | 6.0 | 0.00 | 0.24 | 0.24 | 64 | 1014.1 |
| 20260903194129 | 84 | 224 | 2.0 | 4.0 | 0.00 | 0.24 | 0.24 | 64 | 1014.0 |
| 20260903194025 | 84 | 186 | 3.0 | 7.0 | 0.00 | 0.24 | 0.24 | 63 | 1014.1 |
| 20260903193940 | 84 | 252 | 4.0 | 7.0 | 0.00 | 0.24 | 0.24 | 64 | 1014.1 |
| 20260903193815 | 84 | 236 | 3.0 | 6.0 | 0.00 | 0.24 | 0.24 | 64 | 1014.1 |
| 20260903193727 | 84 | 224 | 0.0 | 1.0 | 0.00 | 0.24 | 0.24 | 63 | 1014.2 |
| 20260903193622 | 84 | 235 | 2.0 | 4.0 | 0.00 | 0.24 | 0.24 | 64 | 1014.2 |
| 20260903193518 | 84 | 220 | 1.0 | 2.0 | 0.00 | 0.24 | 0.24 | 65 | 1014.0 |
| 20260903193430 | 84 | 230 | 2.0 | 2.0 | 0.00 | 0.24 | 0.24 | 65 | 1014.3 |
| 20260903193325 | 84 | 220 | 3.0 | 6.0 | 0.00 | 0.24 | 0.24 | 63 | 1014.1 |
| 20260903193241 | 84 | 233 | 3.0 | 6.0 | 0.00 | 0.24 | 0.24 | 63 | 1014.1 |
| 20260903193117 | 84 | 256 | 5.0 | 8.0 | 0.00 | 0.24 | 0.24 | 63 | 1014.2 |
| 20260903193028 | 84 | 232 | 2.0 | 6.0 | 0.00 | 0.24 | 0.24 | 63 | 1014.1 |
| 20260903192924 | 84 | 242 | 3.0 | 6.0 | 0.00 | 0.24 | 0.24 | 66 | 1014.2 |
| 20260903192839 | 84 | 307 | 3.0 | 6.0 | 0.00 | 0.24 | 0.24 | 63 | 1014.1 |
| 20260903192731 | 84 | 253 | 4.0 | 9.0 | 0.00 | 0.24 | 0.24 | 65 | 1014.2 |
| 20260903192626 | 84 | 227 | 2.0 | 4.0 | 0.00 | 0.24 | 0.24 | 67 | 1014.0 |
| 20260903192522 | 84 | 196 | 2.0 | 2.0 | 0.00 | 0.24 | 0.24 | 66 | 1014.1 |
| 20260903192438 | 84 | 238 | 1.0 | 2.0 | 0.00 | 0.24 | 0.24 | 65 | 1014.1 |
| 20260903192329 | 84 | 245 | 2.0 | 2.0 | 0.00 | 0.24 | 0.24 | 64 | 1014.2 |
| 20260903192237 | 84 | 245 | 3.0 | 3.0 | 0.00 | 0.24 | 0.24 | 64 | 1014.0 |
| 20260903192121 | 84 | 283 | 5.0 | 8.0 | 0.00 | 0.24 | 0.24 | 64 | 1014.2 |
| 20260903192016 | 84 | 271 | 2.0 | 4.0 | 0.00 | 0.24 | 0.24 | 65 | 1014.2 |
| 20260903191928 | 84 | 250 | 1.0 | 2.0 | 0.00 | 0.24 | 0.24 | 65 | 1014.1 |
| 20260903191823 | 84 | 245 | 1.0 | 2.0 | 0.00 | 0.24 | 0.24 | 66 | 1014.2 |
| 20260903191739 | 84 | 235 | 2.0 | 6.0 | 0.00 | 0.24 | 0.24 | 64 | 1014.2 |
| 20260903191631 | 84 | 262 | 5.0 | 7.0 | 0.00 | 0.24 | 0.24 | 66 | 1014.3 |
| 20260903191546 | 84 | 248 | 3.0 | 4.0 | 0.00 | 0.24 | 0.24 | 67 | 1014.2 |
| 20260903191421 | 83 | 259 | 1.0 | 2.0 | 0.00 | 0.24 | 0.24 | 66 | 1014.3 |
| 20260903191317 | 83 | 254 | 3.0 | 8.0 | 0.00 | 0.24 | 0.24 | 68 | 1014.3 |
| 20260903191228 | 83 | 226 | 2.0 | 7.0 | 0.00 | 0.24 | 0.24 | 67 | 1014.4 |
| 20260903191124 | 83 | 257 | 2.0 | 2.0 | 0.00 | 0.24 | 0.24 | 65 | 1014.4 |
| 20260903191059 | 83 | 257 | 2.0 | 4.0 | 0.00 | 0.24 | 0.24 | 65 | 1014.3 |
| 20260903190915 | 83 | 247 | 3.0 | 6.0 | 0.00 | 0.24 | 0.24 | 65 | 1014.3 |
| 20260903190827 | 83 | 239 | 3.0 | 6.0 | 0.00 | 0.24 | 0.24 | 66 | 1014.5 |
| 20260903190723 | 83 | 190 | 1.0 | 2.0 | 0.00 | 0.24 | 0.24 | 68 | 1014.4 |
| 20260903190618 | 83 | 155 | 1.0 | 3.0 | 0.00 | 0.24 | 0.24 | 67 | 1014.4 |
| 20260903190530 | 83 | 208 | 2.0 | 3.0 | 0.00 | 0.25 | 0.24 | 66 | 1014.4 |
| 20260903190425 | 83 | 270 | 5.0 | 7.0 | 0.00 | 0.25 | 0.24 | 66 | 1014.6 |
| 20260903190321 | 83 | 262 | 5.0 | 7.0 | 0.00 | 0.25 | 0.24 | 64 | 1014.4 |
| 20260903190216 | 83 | 231 | 2.0 | 4.0 | 0.00 | 0.25 | 0.24 | 63 | 1014.5 |
| 20260903190148 | 83 | 259 | 4.0 | 8.0 | 0.00 | 0.25 | 0.24 | 63 | 1014.5 |
| 20260903190024 | 83 | 215 | 4.0 | 6.0 | 0.00 | 0.25 | 0.24 | 64 | 1014.6 |
| 20260903185920 | 83 | 263 | 4.0 | 6.0 | 0.00 | 0.25 | 0.24 | 64 | 1014.6 |
| 20260903185815 | 83 | 240 | 4.0 | 7.0 | 0.00 | 0.25 | 0.24 | 64 | 1014.4 |
| 20260903185807 | 83 | 249 | 2.0 | 4.0 | 0.00 | 0.25 | 0.24 | 65 | 1014.6 |
| 20260903185622 | 83 | 233 | 4.0 | 7.0 | 0.00 | 0.25 | 0.24 | 65 | 1014.5 |
| 20260903185518 | 83 | 240 | 4.0 | 7.0 | 0.00 | 0.25 | 0.24 | 65 | 1014.6 |
| 20260903185430 | 83 | 233 | 4.0 | 7.0 | 0.00 | 0.25 | 0.24 | 67 | 1014.5 |
| 20260903185325 | 83 | 235 | 5.0 | 8.0 | 0.00 | 0.26 | 0.24 | 66 | 1014.4 |
| 20260903185221 | 83 | 226 | 2.0 | 7.0 | 0.00 | 0.26 | 0.24 | 66 | 1014.3 |
| 20260903185137 | 83 | 217 | 2.0 | 6.0 | 0.00 | 0.26 | 0.24 | 67 | 1014.6 |
| 20260903185028 | 83 | 274 | 1.0 | 2.0 | 0.00 | 0.26 | 0.24 | 67 | 1014.6 |
| 20260903184924 | 83 | 249 | 3.0 | 7.0 | 0.00 | 0.27 | 0.24 | 66 | 1014.7 |
| 20260903184819 | 83 | 225 | 4.0 | 6.0 | 0.00 | 0.27 | 0.24 | 66 | 1014.7 |
| 20260903184715 | 83 | 252 | 1.0 | 3.0 | 0.00 | 0.27 | 0.24 | 67 | 1014.7 |
| 20260903184626 | 83 | 234 | 3.0 | 4.0 | 0.00 | 0.27 | 0.24 | 65 | 1014.8 |
| 20260903184522 | 83 | 224 | 4.0 | 7.0 | 0.00 | 0.27 | 0.24 | 65 | 1014.8 |
| 20260903184418 | 83 | 202 | 4.0 | 6.0 | 0.00 | 0.28 | 0.24 | 65 | 1014.6 |
| 20260903184350 | 83 | 237 | 4.0 | 8.0 | 0.00 | 0.28 | 0.24 | 66 | 1014.7 |
| 20260903184305 | 83 | 237 | 4.0 | 9.0 | 0.00 | 0.28 | 0.24 | 64 | 1014.7 |
| 20260903184121 | 83 | 271 | 4.0 | 8.0 | 0.00 | 0.28 | 0.24 | 65 | 1014.7 |
| 20260903184016 | 83 | 258 | 4.0 | 6.0 | 0.00 | 0.28 | 0.24 | 65 | 1014.6 |
| 20260903183928 | 83 | 242 | 7.0 | 13.0 | 0.00 | 0.28 | 0.24 | 66 | 1014.7 |
| 20260903183824 | 83 | 245 | 6.0 | 10.0 | 0.00 | 0.28 | 0.24 | 66 | 1014.8 |
| 20260903183739 | 83 | 240 | 2.0 | 3.0 | 0.00 | 0.28 | 0.24 | 65 | 1014.8 |
| 20260903183631 | 83 | 244 | 3.0 | 4.0 | 0.00 | 0.28 | 0.24 | 66 | 1014.8 |
| 20260903183526 | 83 | 234 | 5.0 | 10.0 | 0.00 | 0.28 | 0.24 | 66 | 1014.9 |
| 20260903183421 | 83 | 240 | 4.0 | 7.0 | 0.00 | 0.28 | 0.24 | 67 | 1014.9 |
| 20260903183337 | 83 | 206 | 3.0 | 7.0 | 0.00 | 0.28 | 0.24 | 68 | 1015.0 |
| 20260903183308 | 83 | 238 | 6.0 | 9.0 | 0.00 | 0.28 | 0.24 | 68 | 1014.9 |
| 20260903183124 | 83 | 231 | 3.0 | 7.0 | 0.00 | 0.28 | 0.24 | 69 | 1014.9 |
| 20260903183020 | 83 | 228 | 3.0 | 6.0 | 0.00 | 0.28 | 0.24 | 68 | 1014.8 |
| 20260903182915 | 82 | 265 | 5.0 | 7.0 | 0.00 | 0.28 | 0.24 | 68 | 1014.9 |
| 20260903182827 | 82 | 240 | 6.0 | 10.0 | 0.00 | 0.28 | 0.24 | 68 | 1014.9 |
| 20260903182722 | 82 | 304 | 3.0 | 6.0 | 0.00 | 0.28 | 0.24 | 68 | 1014.8 |
| 20260903182618 | 82 | 246 | 7.0 | 9.0 | 0.00 | 0.28 | 0.24 | 68 | 1014.7 |
| 20260903182529 | 82 | 235 | 2.0 | 6.0 | 0.00 | 0.28 | 0.24 | 69 | 1014.9 |
| 20260903182425 | 82 | 260 | 3.0 | 6.0 | 0.00 | 0.28 | 0.24 | 67 | 1015.0 |
| 20260903182321 | 82 | 239 | 4.0 | 7.0 | 0.00 | 0.28 | 0.24 | 68 | 1015.0 |
| 20260903182216 | 82 | 228 | 3.0 | 8.0 | 0.00 | 0.28 | 0.24 | 70 | 1014.8 |
| 20260903182148 | 82 | 240 | 2.0 | 4.0 | 0.00 | 0.28 | 0.24 | 69 | 1015.0 |
| 20260903182023 | 82 | 253 | 5.0 | 8.0 | 0.00 | 0.28 | 0.24 | 68 | 1015.0 |
| 20260903181939 | 82 | 240 | 2.0 | 4.0 | 0.00 | 0.28 | 0.24 | 69 | 1015.0 |
| 20260903181851 | 82 | 247 | 5.0 | 10.0 | 0.00 | 0.28 | 0.24 | 69 | 1015.0 |
| 20260903181726 | 82 | 240 | 5.0 | 10.0 | 0.00 | 0.28 | 0.24 | 68 | 1015.2 |
| 20260903181622 | 82 | 237 | 4.0 | 6.0 | 0.00 | 0.28 | 0.24 | 68 | 1015.1 |
| 20260903181518 | 82 | 227 | 5.0 | 8.0 | 0.00 | 0.28 | 0.24 | 67 | 1015.1 |
| 20260903181429 | 82 | 230 | 6.0 | 9.0 | 0.00 | 0.28 | 0.24 | 68 | 1014.9 |
| 20260903181404 | 82 | 236 | 6.0 | 8.0 | 0.00 | 0.28 | 0.24 | 69 | 1015.0 |
| 20260903181219 | 82 | 236 | 4.0 | 6.0 | 0.00 | 0.28 | 0.24 | 70 | 1015.1 |
| 20260903181131 | 82 | 228 | 3.0 | 6.0 | 0.00 | 0.28 | 0.24 | 70 | 1015.1 |
| 20260903181107 | 82 | 197 | 1.0 | 4.0 | 0.00 | 0.28 | 0.24 | 72 | 1015.0 |
| 20260903180942 | 82 | 164 | 1.0 | 3.0 | 0.00 | 0.28 | 0.24 | 72 | 1015.0 |
| 20260903180818 | 82 | 197 | 3.0 | 4.0 | 0.00 | 0.28 | 0.24 | 72 | 1015.0 |
| 20260903180729 | 82 | 192 | 2.0 | 6.0 | 0.00 | 0.28 | 0.24 | 72 | 1015.0 |
| 20260903180625 | 82 | 158 | 2.0 | 3.0 | 0.00 | 0.28 | 0.24 | 72 | 1015.0 |
| 20260903180520 | 82 | 187 | 3.0 | 6.0 | 0.00 | 0.28 | 0.24 | 71 | 1015.0 |
| 20260903180416 | 82 | 237 | 4.0 | 8.0 | 0.00 | 0.28 | 0.24 | 71 | 1015.0 |
| 20260903180328 | 82 | 169 | 3.0 | 7.0 | 0.00 | 0.28 | 0.24 | 72 | 1014.9 |
| 20260903180223 | 82 | 217 | 2.0 | 4.0 | 0.00 | 0.28 | 0.24 | 72 | 1014.9 |
| 20260903180139 | 82 | 160 | 2.0 | 3.0 | 0.00 | 0.28 | 0.24 | 73 | 1015.0 |
| 20260903180030 | 82 | 156 | 2.0 | 4.0 | 0.00 | 0.28 | 0.24 | 74 | 1015.1 |
| 20260903175925 | 82 | 236 | 1.0 | 2.0 | 0.00 | 0.28 | 0.24 | 73 | 1015.1 |
| 20260903175821 | 82 | 233 | 2.0 | 3.0 | 0.00 | 0.28 | 0.24 | 73 | 1015.1 |
| 20260903175717 | 81 | 167 | 0.0 | 1.0 | 0.00 | 0.28 | 0.24 | 75 | 1015.0 |
| 20260903175628 | 81 | 167 | 1.0 | 2.0 | 0.00 | 0.28 | 0.24 | 74 | 1015.1 |
| 20260903175524 | 81 | 168 | 0.0 | 1.0 | 0.00 | 0.28 | 0.24 | 74 | 1015.2 |
| 20260903175419 | 81 | 169 | 2.0 | 3.0 | 0.00 | 0.28 | 0.24 | 74 | 1015.2 |
| 20260903175315 | 81 | 172 | 2.0 | 3.0 | 0.00 | 0.28 | 0.24 | 74 | 1015.0 |
| 20260903175227 | 81 | 238 | 1.0 | 1.0 | 0.00 | 0.28 | 0.24 | 73 | 1015.1 |
| 20260903175122 | 81 | 239 | 1.0 | 4.0 | 0.00 | 0.28 | 0.24 | 72 | 1015.2 |
| 20260903175018 | 81 | 237 | 1.0 | 3.0 | 0.00 | 0.28 | 0.24 | 72 | 1015.2 |
| 20260903174929 | 81 | 246 | 2.0 | 6.0 | 0.00 | 0.28 | 0.24 | 71 | 1015.3 |
| 20260903174825 | 81 | 236 | 4.0 | 7.0 | 0.00 | 0.28 | 0.24 | 71 | 1015.2 |
| 20260903174721 | 81 | 240 | 4.0 | 7.0 | 0.00 | 0.28 | 0.24 | 71 | 1015.2 |
| 20260903174636 | 81 | 231 | 2.0 | 3.0 | 0.00 | 0.28 | 0.24 | 71 | 1015.5 |
| 20260903174528 | 81 | 249 | 2.0 | 6.0 | 0.00 | 0.28 | 0.24 | 71 | 1015.3 |
| 20260903174423 | 81 | 244 | 4.0 | 8.0 | 0.00 | 0.28 | 0.24 | 71 | 1015.4 |
| 20260903174319 | 81 | 285 | 5.0 | 7.0 | 0.00 | 0.28 | 0.24 | 70 | 1015.3 |
| 20260903174231 | 81 | 281 | 5.0 | 8.0 | 0.00 | 0.28 | 0.24 | 70 | 1015.4 |
| 20260903174126 | 81 | 253 | 4.0 | 8.0 | 0.00 | 0.28 | 0.24 | 71 | 1015.5 |
| 20260903174021 | 81 | 251 | 4.0 | 7.0 | 0.00 | 0.28 | 0.24 | 71 | 1015.4 |
| 20260903173917 | 81 | 218 | 4.0 | 8.0 | 0.00 | 0.28 | 0.24 | 71 | 1015.2 |
| 20260903173909 | 81 | 226 | 2.0 | 4.0 | 0.00 | 0.28 | 0.24 | 71 | 1015.6 |
| 20260903173725 | 81 | 250 | 3.0 | 8.0 | 0.00 | 0.28 | 0.24 | 70 | 1015.6 |
| 20260903173620 | 81 | 237 | 5.0 | 7.0 | 0.00 | 0.28 | 0.24 | 70 | 1015.5 |
| 20260903173516 | 81 | 234 | 3.0 | 6.0 | 0.00 | 0.28 | 0.24 | 70 | 1015.6 |
| 20260903173428 | 81 | 289 | 3.0 | 7.0 | 0.00 | 0.28 | 0.24 | 70 | 1015.4 |
| 20260903173323 | 81 | 254 | 5.0 | 7.0 | 0.00 | 0.28 | 0.24 | 70 | 1015.5 |
| 20260903173219 | 81 | 248 | 6.0 | 8.0 | 0.00 | 0.28 | 0.24 | 71 | 1015.6 |
| 20260903173131 | 81 | 238 | 5.0 | 10.0 | 0.00 | 0.28 | 0.24 | 72 | 1015.5 |
| 20260903173026 | 81 | 268 | 3.0 | 7.0 | 0.00 | 0.28 | 0.24 | 72 | 1015.5 |
| 20260903172922 | 80 | 276 | 2.0 | 4.0 | 0.00 | 0.28 | 0.24 | 71 | 1015.5 |
| 20260903172817 | 80 | 291 | 4.0 | 8.0 | 0.00 | 0.28 | 0.24 | 71 | 1015.5 |
| 20260903172729 | 80 | 265 | 5.0 | 9.0 | 0.00 | 0.28 | 0.24 | 71 | 1015.7 |
| 20260903172625 | 81 | 236 | 3.0 | 6.0 | 0.00 | 0.28 | 0.24 | 70 | 1015.7 |
| 20260903172520 | 81 | 221 | 4.0 | 7.0 | 0.00 | 0.28 | 0.24 | 69 | 1015.6 |
| 20260903172416 | 81 | 238 | 7.0 | 15.0 | 0.00 | 0.28 | 0.24 | 70 | 1015.7 |
| 20260903172327 | 81 | 285 | 6.0 | 11.0 | 0.00 | 0.28 | 0.24 | 69 | 1015.5 |
| 20260903172223 | 81 | 226 | 5.0 | 11.0 | 0.00 | 0.28 | 0.24 | 71 | 1015.6 |
| 20260903172139 | 81 | 260 | 4.0 | 6.0 | 0.00 | 0.28 | 0.24 | 69 | 1015.8 |
| 20260903172110 | 81 | 218 | 5.0 | 9.0 | 0.00 | 0.28 | 0.24 | 70 | 1015.7 |
| 20260903171926 | 81 | 237 | 4.0 | 8.0 | 0.00 | 0.28 | 0.24 | 69 | 1015.7 |
| 20260903171821 | 81 | 225 | 6.0 | 10.0 | 0.00 | 0.28 | 0.24 | 72 | 1015.6 |
| 20260903171717 | 81 | 195 | 2.0 | 7.0 | 0.00 | 0.28 | 0.24 | 73 | 1015.7 |
| 20260903171649 | 81 | 183 | 1.0 | 3.0 | 0.00 | 0.28 | 0.24 | 73 | 1015.8 |
| 20260903171524 | 81 | 203 | 2.0 | 3.0 | 0.00 | 0.28 | 0.24 | 72 | 1015.8 |
| 20260903171420 | 81 | 233 | 4.0 | 9.0 | 0.00 | 0.28 | 0.24 | 72 | 1015.6 |
| 20260903171335 | 81 | 196 | 4.0 | 11.0 | 0.00 | 0.28 | 0.24 | 73 | 1015.7 |
| 20260903171227 | 81 | 166 | 3.0 | 8.0 | 0.00 | 0.28 | 0.24 | 73 | 1015.8 |
| 20260903171122 | 81 | 237 | 4.0 | 8.0 | 0.00 | 0.28 | 0.24 | 73 | 1015.8 |
| 20260903171018 | 81 | 337 | 3.0 | 7.0 | 0.00 | 0.28 | 0.24 | 72 | 1015.9 |
| 20260903171006 | 81 | 250 | 4.0 | 7.0 | 0.00 | 0.28 | 0.24 | 72 | 1015.6 |
| 20260903170721 | 81 | 253 | 5.0 | 8.0 | 0.00 | 0.28 | 0.24 | 72 | 1015.7 |
| 20260903170616 | 81 | 245 | 2.0 | 3.0 | 0.00 | 0.28 | 0.24 | 71 | 1015.7 |
| 20260903170528 | 81 | 235 | 3.0 | 6.0 | 0.00 | 0.28 | 0.24 | 71 | 1015.7 |
| 20260903170424 | 81 | 239 | 4.0 | 7.0 | 0.00 | 0.28 | 0.24 | 72 | 1015.8 |
| 20260903170319 | 81 | 194 | 1.0 | 2.0 | 0.00 | 0.28 | 0.24 | 73 | 1015.7 |
| 20260903170231 | 81 | 219 | 2.0 | 3.0 | 0.00 | 0.28 | 0.24 | 72 | 1015.9 |
| 20260903170126 | 81 | 259 | 5.0 | 10.0 | 0.00 | 0.28 | 0.24 | 71 | 1015.8 |
| 20260903170022 | 81 | 279 | 4.0 | 10.0 | 0.00 | 0.28 | 0.24 | 72 | 1015.9 |
| 20260903165917 | 81 | 236 | 4.0 | 7.0 | 0.00 | 0.28 | 0.24 | 72 | 1015.7 |
| 20260903165829 | 81 | 252 | 4.0 | 10.0 | 0.00 | 0.28 | 0.24 | 73 | 1016.0 |
| 20260903165724 | 81 | 233 | 2.0 | 7.0 | 0.00 | 0.28 | 0.24 | 73 | 1016.0 |
| 20260903165619 | 81 | 240 | 6.0 | 11.0 | 0.00 | 0.28 | 0.24 | 72 | 1015.9 |
| 20260903165551 | 81 | 226 | 4.0 | 8.0 | 0.00 | 0.28 | 0.24 | 74 | 1015.9 |
| 20260903165426 | 81 | 200 | 2.0 | 7.0 | 0.00 | 0.28 | 0.24 | 75 | 1016.0 |
| 20260903165321 | 81 | 252 | 3.0 | 7.0 | 0.00 | 0.28 | 0.24 | 73 | 1016.0 |
| 20260903165237 | 81 | 264 | 3.0 | 6.0 | 0.00 | 0.28 | 0.24 | 72 | 1015.9 |
| 20260903165129 | 81 | 227 | 2.0 | 3.0 | 0.00 | 0.28 | 0.24 | 72 | 1016.1 |
| 20260903165044 | 81 | 243 | 6.0 | 10.0 | 0.00 | 0.28 | 0.24 | 72 | 1016.0 |
| 20260903164920 | 81 | 251 | 4.0 | 4.0 | 0.00 | 0.28 | 0.24 | 74 | 1016.2 |
| 20260903164815 | 81 | 163 | 2.0 | 4.0 | 0.00 | 0.28 | 0.24 | 75 | 1015.9 |
| 20260903164727 | 81 | 167 | 1.0 | 1.0 | 0.00 | 0.28 | 0.24 | 74 | 1016.0 |
| 20260903164623 | 81 | 208 | 1.0 | 2.0 | 0.00 | 0.28 | 0.24 | 73 | 1016.0 |
| 20260903164558 | 81 | 246 | 1.0 | 1.0 | 0.00 | 0.28 | 0.24 | 73 | 1015.9 |
| 20260903164430 | 81 | 249 | 3.0 | 6.0 | 0.00 | 0.28 | 0.24 | 72 | 1016.1 |
| 20260903164325 | 81 | 248 | 3.0 | 6.0 | 0.00 | 0.28 | 0.24 | 71 | 1016.1 |
| 20260903164221 | 81 | 228 | 5.0 | 8.0 | 0.00 | 0.28 | 0.24 | 71 | 1016.0 |
| 20260903164117 | 81 | 230 | 5.0 | 8.0 | 0.00 | 0.28 | 0.24 | 73 | 1015.8 |
| 20260903164028 | 81 | 265 | 4.0 | 11.0 | 0.00 | 0.28 | 0.24 | 73 | 1016.0 |
| 20260903163923 | 81 | 256 | 2.0 | 3.0 | 0.00 | 0.28 | 0.24 | 72 | 1016.0 |
| 20260903163839 | 81 | 246 | 4.0 | 7.0 | 0.00 | 0.28 | 0.24 | 71 | 1016.0 |
| 20260903163731 | 81 | 254 | 6.0 | 9.0 | 0.00 | 0.28 | 0.24 | 72 | 1015.8 |
| 20260903163626 | 80 | 237 | 3.0 | 4.0 | 0.00 | 0.28 | 0.24 | 74 | 1016.0 |
| 20260903163522 | 80 | 294 | 1.0 | 2.0 | 0.00 | 0.28 | 0.24 | 74 | 1016.0 |
| 20260903163418 | 80 | 241 | 2.0 | 3.0 | 0.00 | 0.28 | 0.24 | 72 | 1016.0 |
| 20260903163329 | 80 | 191 | 2.0 | 6.0 | 0.00 | 0.28 | 0.24 | 72 | 1016.0 |
| 20260903163225 | 80 | 230 | 3.0 | 6.0 | 0.00 | 0.28 | 0.24 | 72 | 1016.1 |
| 20260903163120 | 80 | 268 | 5.0 | 7.0 | 0.00 | 0.28 | 0.24 | 74 | 1016.1 |
| 20260903163016 | 80 | 285 | 3.0 | 8.0 | 0.00 | 0.28 | 0.24 | 73 | 1016.2 |
| 20260903162927 | 80 | 259 | 2.0 | 3.0 | 0.00 | 0.28 | 0.24 | 73 | 1016.1 |
| 20260903162823 | 80 | 232 | 4.0 | 7.0 | 0.00 | 0.28 | 0.24 | 74 | 1016.0 |
| 20260903162738 | 80 | 272 | 4.0 | 8.0 | 0.00 | 0.28 | 0.24 | 73 | 1016.2 |
| 20260903162630 | 80 | 231 | 3.0 | 7.0 | 0.00 | 0.28 | 0.24 | 73 | 1016.2 |
| 20260903162625 | 80 | 250 | 7.0 | 13.0 | 0.00 | 0.28 | 0.24 | 73 | 1016.2 |
| 20260903162441 | 80 | 250 | 4.0 | 8.0 | 0.00 | 0.28 | 0.24 | 73 | 1016.2 |
| 20260903162316 | 80 | 236 | 4.0 | 7.0 | 0.00 | 0.28 | 0.24 | 73 | 1016.3 |
| 20260903162308 | 80 | 228 | 5.0 | 8.0 | 0.00 | 0.28 | 0.24 | 73 | 1016.4 |
| 20260903162143 | 80 | 241 | 6.0 | 8.0 | 0.00 | 0.28 | 0.24 | 73 | 1016.4 |
| 20260903162019 | 80 | 240 | 7.0 | 14.0 | 0.00 | 0.28 | 0.24 | 72 | 1016.2 |
| 20260903161930 | 80 | 258 | 6.0 | 9.0 | 0.00 | 0.28 | 0.24 | 73 | 1016.2 |
| 20260903161826 | 80 | 225 | 3.0 | 8.0 | 0.00 | 0.28 | 0.24 | 74 | 1016.4 |
| 20260903161722 | 79 | 229 | 9.0 | 19.0 | 0.00 | 0.28 | 0.24 | 72 | 1016.4 |
| 20260903161617 | 79 | 255 | 6.0 | 9.0 | 0.00 | 0.28 | 0.24 | 75 | 1016.6 |
| 20260903161529 | 79 | 268 | 6.0 | 13.0 | 0.00 | 0.28 | 0.24 | 76 | 1016.5 |
| 20260903161424 | 79 | 243 | 3.0 | 6.0 | 0.00 | 0.28 | 0.24 | 77 | 1016.5 |
| 20260903161320 | 79 | 213 | 2.0 | 2.0 | 0.00 | 0.28 | 0.24 | 77 | 1016.2 |
| 20260903161216 | 79 | 211 | 3.0 | 8.0 | 0.00 | 0.28 | 0.24 | 78 | 1016.4 |
| 20260903161127 | 79 | 210 | 2.0 | 4.0 | 0.00 | 0.28 | 0.24 | 77 | 1016.4 |
| 20260903161023 | 79 | 218 | 5.0 | 9.0 | 0.00 | 0.28 | 0.24 | 76 | 1016.6 |
| 20260903160918 | 79 | 245 | 6.0 | 10.0 | 0.00 | 0.28 | 0.24 | 76 | 1016.6 |
| 20260903160830 | 79 | 214 | 2.0 | 4.0 | 0.00 | 0.28 | 0.24 | 76 | 1016.5 |
| 20260903160726 | 79 | 250 | 4.0 | 8.0 | 0.00 | 0.28 | 0.24 | 75 | 1016.5 |
| 20260903160621 | 79 | 229 | 5.0 | 8.0 | 0.00 | 0.28 | 0.24 | 76 | 1016.4 |
| 20260903160517 | 79 | 239 | 9.0 | 15.0 | 0.00 | 0.28 | 0.24 | 77 | 1016.7 |
| 20260903160428 | 79 | 310 | 3.0 | 7.0 | 0.00 | 0.28 | 0.24 | 78 | 1016.5 |
| 20260903160324 | 79 | 208 | 2.0 | 3.0 | 0.00 | 0.28 | 0.24 | 78 | 1016.6 |
| 20260903160219 | 79 | 253 | 5.0 | 7.0 | 0.00 | 0.28 | 0.24 | 76 | 1016.6 |
| 20260903160115 | 79 | 230 | 6.0 | 10.0 | 0.00 | 0.28 | 0.24 | 77 | 1016.5 |
| 20260903160047 | 79 | 238 | 4.0 | 10.0 | 0.00 | 0.28 | 0.24 | 77 | 1016.6 |
| 20260903155922 | 79 | 236 | 4.0 | 7.0 | 0.00 | 0.28 | 0.24 | 76 | 1016.6 |
| 20260903155858 | 79 | 228 | 4.0 | 7.0 | 0.00 | 0.28 | 0.24 | 78 | 1016.8 |
| 20260903155729 | 79 | 233 | 2.0 | 4.0 | 0.00 | 0.28 | 0.24 | 78 | 1016.6 |
| 20260903155625 | 78 | 202 | 5.0 | 13.0 | 0.00 | 0.28 | 0.24 | 77 | 1016.4 |
| 20260903155520 | 78 | 230 | 3.0 | 7.0 | 0.00 | 0.28 | 0.24 | 77 | 1016.6 |
| 20260903155416 | 78 | 244 | 4.0 | 8.0 | 0.00 | 0.28 | 0.24 | 77 | 1016.4 |
| 20260903155328 | 78 | 278 | 3.0 | 7.0 | 0.00 | 0.28 | 0.24 | 77 | 1016.5 |
| 20260903155223 | 78 | 245 | 3.0 | 6.0 | 0.00 | 0.28 | 0.24 | 77 | 1016.6 |
| 20260903155139 | 78 | 243 | 5.0 | 9.0 | 0.00 | 0.28 | 0.24 | 77 | 1016.7 |
| 20260903155031 | 78 | 241 | 4.0 | 9.0 | 0.00 | 0.28 | 0.24 | 77 | 1016.5 |
| 20260903154926 | 78 | 267 | 4.0 | 8.0 | 0.00 | 0.28 | 0.24 | 77 | 1016.8 |
| 20260903154822 | 78 | 255 | 3.0 | 6.0 | 0.00 | 0.28 | 0.24 | 78 | 1016.7 |
| 20260903154717 | 78 | 223 | 2.0 | 3.0 | 0.00 | 0.28 | 0.24 | 78 | 1016.6 |
| 20260903154629 | 78 | 234 | 2.0 | 3.0 | 0.00 | 0.28 | 0.24 | 76 | 1016.7 |
| 20260903154524 | 78 | 236 | 3.0 | 7.0 | 0.00 | 0.28 | 0.24 | 76 | 1016.7 |
| 20260903154440 | 78 | 235 | 3.0 | 6.0 | 0.00 | 0.28 | 0.24 | 76 | 1016.7 |
| 20260903154315 | 78 | 219 | 3.0 | 8.0 | 0.00 | 0.28 | 0.24 | 76 | 1016.6 |
| 20260903154227 | 78 | 249 | 5.0 | 8.0 | 0.00 | 0.28 | 0.24 | 77 | 1016.7 |
| 20260903154123 | 78 | 241 | 4.0 | 8.0 | 0.00 | 0.28 | 0.24 | 77 | 1016.8 |
| 20260903154038 | 78 | 226 | 3.0 | 4.0 | 0.00 | 0.28 | 0.24 | 76 | 1017.0 |
| 20260903153930 | 78 | 240 | 4.0 | 7.0 | 0.00 | 0.28 | 0.24 | 77 | 1016.9 |
| 20260903153825 | 78 | 258 | 3.0 | 4.0 | 0.00 | 0.28 | 0.24 | 78 | 1016.8 |
| 20260903153721 | 78 | 235 | 3.0 | 4.0 | 0.00 | 0.28 | 0.24 | 77 | 1016.8 |
| 20260903153616 | 78 | 248 | 2.0 | 3.0 | 0.00 | 0.28 | 0.24 | 78 | 1016.8 |
| 20260903153528 | 78 | 237 | 1.0 | 2.0 | 0.00 | 0.28 | 0.24 | 78 | 1016.8 |
| 20260903153424 | 78 | 219 | 2.0 | 4.0 | 0.00 | 0.28 | 0.24 | 78 | 1016.8 |
| 20260903153340 | 78 | 217 | 4.0 | 8.0 | 0.00 | 0.28 | 0.24 | 76 | 1016.8 |
| 20260903153215 | 78 | 249 | 6.0 | 13.0 | 0.00 | 0.28 | 0.24 | 76 | 1017.0 |
| 20260903153127 | 78 | 236 | 3.0 | 9.0 | 0.00 | 0.28 | 0.24 | 78 | 1017.0 |
| 20260903153022 | 78 | 224 | 4.0 | 7.0 | 0.00 | 0.28 | 0.24 | 77 | 1017.0 |
| 20260903152918 | 78 | 273 | 3.0 | 6.0 | 0.00 | 0.28 | 0.24 | 78 | 1016.9 |
| 20260903152849 | 78 | 236 | 3.0 | 6.0 | 0.00 | 0.28 | 0.24 | 78 | 1016.9 |
| 20260903152725 | 78 | 209 | 4.0 | 7.0 | 0.00 | 0.28 | 0.24 | 80 | 1017.0 |
| 20260903152640 | 78 | 198 | 3.0 | 6.0 | 0.00 | 0.28 | 0.24 | 77 | 1016.9 |
| 20260903152556 | 78 | 247 | 3.0 | 6.0 | 0.00 | 0.28 | 0.24 | 77 | 1017.0 |
| 20260903152428 | 78 | 240 | 3.0 | 4.0 | 0.00 | 0.28 | 0.24 | 76 | 1017.1 |
| 20260903152323 | 78 | 255 | 7.0 | 10.0 | 0.00 | 0.28 | 0.24 | 78 | 1017.0 |
| 20260903152231 | 78 | 250 | 5.0 | 9.0 | 0.00 | 0.28 | 0.24 | 79 | 1017.2 |
| 20260903152046 | 78 | 235 | 2.0 | 4.0 | 0.00 | 0.28 | 0.24 | 79 | 1017.2 |
| 20260903151921 | 78 | 229 | 3.0 | 6.0 | 0.00 | 0.28 | 0.24 | 78 | 1017.2 |
| 20260903151817 | 78 | 246 | 2.0 | 4.0 | 0.00 | 0.28 | 0.24 | 77 | 1017.3 |
| 20260903151728 | 78 | 259 | 4.0 | 7.0 | 0.00 | 0.28 | 0.24 | 78 | 1017.1 |
| 20260903151624 | 78 | 230 | 3.0 | 6.0 | 0.00 | 0.28 | 0.24 | 79 | 1017.2 |
| 20260903151520 | 78 | 251 | 4.0 | 7.0 | 0.00 | 0.28 | 0.24 | 77 | 1017.0 |
| 20260903151415 | 78 | 259 | 4.0 | 7.0 | 0.00 | 0.28 | 0.24 | 77 | 1017.1 |
| 20260903151327 | 78 | 239 | 5.0 | 8.0 | 0.00 | 0.28 | 0.24 | 77 | 1017.1 |
| 20260903151242 | 78 | 229 | 4.0 | 7.0 | 0.00 | 0.28 | 0.24 | 77 | 1017.2 |
| 20260903151118 | 78 | 234 | 4.0 | 8.0 | 0.00 | 0.28 | 0.24 | 77 | 1017.2 |
| 20260903151049 | 78 | 240 | 6.0 | 9.0 | 0.00 | 0.28 | 0.24 | 78 | 1017.2 |
| 20260903150924 | 78 | 227 | 4.0 | 7.0 | 0.00 | 0.28 | 0.24 | 77 | 1017.2 |
| 20260903150820 | 78 | 264 | 7.0 | 10.0 | 0.00 | 0.28 | 0.24 | 78 | 1017.0 |
| 20260903150735 | 78 | 242 | 4.0 | 7.0 | 0.00 | 0.28 | 0.24 | 79 | 1017.1 |
| 20260903150627 | 78 | 251 | 3.0 | 6.0 | 0.00 | 0.28 | 0.24 | 79 | 1017.1 |
| 20260903150523 | 78 | 253 | 4.0 | 8.0 | 0.00 | 0.28 | 0.24 | 79 | 1017.2 |
| 20260903150418 | 78 | 257 | 2.0 | 4.0 | 0.00 | 0.28 | 0.24 | 79 | 1017.2 |
| 20260903150330 | 78 | 237 | 3.0 | 4.0 | 0.00 | 0.28 | 0.24 | 79 | 1017.1 |
| 20260903150225 | 78 | 220 | 4.0 | 7.0 | 0.00 | 0.28 | 0.24 | 79 | 1017.1 |
| 20260903150121 | 78 | 237 | 2.0 | 4.0 | 0.00 | 0.28 | 0.24 | 81 | 1017.0 |
| 20260903150016 | 78 | 231 | 1.0 | 4.0 | 0.00 | 0.28 | 0.24 | 80 | 1017.1 |
| 20260903145928 | 78 | 282 | 2.0 | 4.0 | 0.00 | 0.28 | 0.24 | 80 | 1016.9 |
| 20260903145824 | 78 | 278 | 3.0 | 4.0 | 0.00 | 0.28 | 0.24 | 80 | 1016.9 |
| 20260903145719 | 78 | 284 | 6.0 | 7.0 | 0.00 | 0.28 | 0.24 | 78 | 1016.8 |
| 20260903145655 | 78 | 239 | 6.0 | 8.0 | 0.00 | 0.28 | 0.24 | 78 | 1017.1 |
| 20260903145527 | 78 | 238 | 3.0 | 4.0 | 0.00 | 0.28 | 0.24 | 79 | 1016.8 |
| 20260903145422 | 78 | 236 | 3.0 | 6.0 | 0.00 | 0.28 | 0.24 | 82 | 1016.8 |
| 20260903145318 | 78 | 274 | 1.0 | 1.0 | 0.00 | 0.28 | 0.24 | 82 | 1016.7 |
| 20260903145229 | 78 | 256 | 3.0 | 6.0 | 0.00 | 0.28 | 0.24 | 83 | 1016.8 |
| 20260903145125 | 78 | 217 | 1.0 | 2.0 | 0.00 | 0.28 | 0.24 | 83 | 1016.6 |
| 20260903145020 | 77 | 197 | 1.0 | 2.0 | 0.00 | 0.28 | 0.24 | 80 | 1016.6 |
| 20260903144916 | 77 | 228 | 6.0 | 10.0 | 0.00 | 0.28 | 0.24 | 80 | 1016.7 |
| 20260903144827 | 77 | 216 | 3.0 | 9.0 | 0.00 | 0.28 | 0.24 | 81 | 1016.8 |
| 20260903144723 | 77 | 223 | 1.0 | 2.0 | 0.00 | 0.28 | 0.24 | 80 | 1017.1 |
| 20260903144618 | 77 | 220 | 6.0 | 9.0 | 0.00 | 0.28 | 0.24 | 79 | 1017.1 |
| 20260903144530 | 78 | 270 | 4.0 | 9.0 | 0.00 | 0.28 | 0.24 | 79 | 1017.3 |
| 20260903144426 | 78 | 237 | 6.0 | 11.0 | 0.00 | 0.28 | 0.24 | 81 | 1017.2 |
| 20260903144321 | 78 | 233 | 3.0 | 4.0 | 0.00 | 0.28 | 0.24 | 81 | 1017.2 |
| 20260903144217 | 78 | 237 | 4.0 | 8.0 | 0.00 | 0.28 | 0.24 | 81 | 1017.3 |
| 20260903144128 | 78 | 257 | 6.0 | 8.0 | 0.00 | 0.28 | 0.24 | 81 | 1017.1 |
| 20260903144024 | 78 | 226 | 2.0 | 4.0 | 0.00 | 0.28 | 0.24 | 84 | 1017.0 |
| 20260903143919 | 78 | 199 | 2.0 | 4.0 | 0.00 | 0.28 | 0.24 | 85 | 1017.0 |
| 20260903143815 | 77 | 246 | 2.0 | 3.0 | 0.00 | 0.28 | 0.24 | 83 | 1017.1 |
| 20260903143727 | 77 | 244 | 3.0 | 6.0 | 0.00 | 0.28 | 0.24 | 81 | 1016.9 |
| 20260903143622 | 77 | 214 | 3.0 | 6.0 | 0.00 | 0.28 | 0.24 | 83 | 1016.9 |
| 20260903143518 | 77 | 223 | 2.0 | 2.0 | 0.00 | 0.28 | 0.24 | 83 | 1016.9 |
| 20260903143430 | 77 | 261 | 4.0 | 9.0 | 0.00 | 0.28 | 0.24 | 83 | 1016.9 |
| 20260903143325 | 77 | 237 | 1.0 | 2.0 | 0.00 | 0.28 | 0.24 | 83 | 1016.8 |
| 20260903143221 | 77 | 226 | 2.0 | 6.0 | 0.00 | 0.28 | 0.24 | 83 | 1016.8 |
| 20260903143116 | 77 | 229 | 2.0 | 4.0 | 0.00 | 0.28 | 0.24 | 82 | 1017.1 |
| 20260903143028 | 77 | 231 | 3.0 | 6.0 | 0.00 | 0.28 | 0.24 | 80 | 1017.1 |
| 20260903142923 | 77 | 232 | 5.0 | 8.0 | 0.00 | 0.28 | 0.24 | 82 | 1017.1 |
| 20260903142819 | 78 | 244 | 2.0 | 4.0 | 0.00 | 0.28 | 0.24 | 83 | 1016.8 |
| 20260903142731 | 78 | 240 | 2.0 | 3.0 | 0.00 | 0.28 | 0.24 | 82 | 1016.7 |
| 20260903142626 | 78 | 233 | 3.0 | 8.0 | 0.00 | 0.28 | 0.24 | 81 | 1016.8 |
| 20260903142522 | 78 | 244 | 5.0 | 8.0 | 0.00 | 0.28 | 0.24 | 85 | 1016.8 |
| 20260903142437 | 78 | 276 | 2.0 | 4.0 | 0.00 | 0.28 | 0.24 | 84 | 1016.8 |
| 20260903142329 | 77 | 265 | 2.0 | 4.0 | 0.00 | 0.28 | 0.24 | 86 | 1016.6 |
| 20260903142224 | 77 | 234 | 1.0 | 2.0 | 0.00 | 0.28 | 0.24 | 85 | 1016.8 |
| 20260903142120 | 77 | 235 | 2.0 | 6.0 | 0.00 | 0.28 | 0.24 | 86 | 1016.7 |
| 20260903142036 | 77 | 236 | 1.0 | 1.0 | 0.00 | 0.28 | 0.24 | 86 | 1016.5 |
| 20260903141927 | 77 | 241 | 2.0 | 3.0 | 0.00 | 0.28 | 0.24 | 86 | 1016.7 |
| 20260903141823 | 77 | 266 | 1.0 | 2.0 | 0.00 | 0.28 | 0.24 | 88 | 1016.6 |
| 20260903141718 | 77 | 266 | 0.0 | 1.0 | 0.00 | 0.28 | 0.24 | 89 | 1016.5 |
| 20260903141650 | 77 | 266 | 1.0 | 1.0 | 0.00 | 0.28 | 0.24 | 89 | 1016.5 |
| 20260903141525 | 77 | 266 | 1.0 | 2.0 | 0.00 | 0.28 | 0.24 | 89 | 1016.6 |
| 20260903141421 | 76 | 261 | 0.0 | 1.0 | 0.00 | 0.28 | 0.24 | 87 | 1016.6 |
| 20260903141317 | 76 | 261 | 1.0 | 1.0 | 0.00 | 0.28 | 0.24 | 86 | 1016.7 |
| 20260903141228 | 76 | 262 | 2.0 | 3.0 | 0.00 | 0.28 | 0.24 | 86 | 1016.9 |
| 20260903141124 | 76 | 231 | 2.0 | 4.0 | 0.00 | 0.28 | 0.24 | 88 | 1016.8 |
| 20260903141020 | 76 | 230 | 1.0 | 2.0 | 0.00 | 0.28 | 0.24 | 87 | 1016.8 |
| 20260903140915 | 76 | 237 | 3.0 | 4.0 | 0.00 | 0.28 | 0.24 | 87 | 1016.9 |
| 20260903140827 | 76 | 240 | 2.0 | 4.0 | 0.00 | 0.28 | 0.24 | 84 | 1017.1 |
| 20260903140722 | 76 | 227 | 6.0 | 9.0 | 0.00 | 0.28 | 0.24 | 85 | 1017.0 |
| 20260903140618 | 76 | 259 | 3.0 | 3.0 | 0.00 | 0.28 | 0.24 | 88 | 1016.8 |
| 20260903140530 | 76 | 187 | 2.0 | 4.0 | 0.00 | 0.28 | 0.24 | 87 | 1016.8 |
| 20260903140425 | 76 | 286 | 2.0 | 4.0 | 0.00 | 0.28 | 0.24 | 85 | 1016.9 |
| 20260903140341 | 76 | 232 | 4.0 | 7.0 | 0.00 | 0.28 | 0.24 | 86 | 1016.9 |
| 20260903140236 | 76 | 223 | 2.0 | 6.0 | 0.00 | 0.28 | 0.24 | 88 | 1016.7 |
| 20260903140128 | 76 | 232 | 3.0 | 6.0 | 0.00 | 0.28 | 0.24 | 88 | 1016.8 |
| 20260903140023 | 76 | 228 | 3.0 | 7.0 | 0.00 | 0.28 | 0.24 | 88 | 1016.7 |
| 20260903135919 | 76 | 225 | 3.0 | 4.0 | 0.00 | 0.28 | 0.24 | 89 | 1016.7 |
| 20260903135830 | 75 | 241 | 2.0 | 2.0 | 0.00 | 0.28 | 0.24 | 90 | 1016.7 |
| 20260903135726 | 75 | 240 | 3.0 | 4.0 | 0.00 | 0.28 | 0.24 | 88 | 1016.8 |
| 20260903135622 | 75 | 237 | 4.0 | 7.0 | 0.00 | 0.28 | 0.24 | 90 | 1016.8 |
| 20260903135517 | 75 | 243 | 2.0 | 4.0 | 0.00 | 0.28 | 0.24 | 92 | 1016.8 |
| 20260903135449 | 75 | 267 | 1.0 | 2.0 | 0.00 | 0.28 | 0.24 | 92 | 1016.8 |
| 20260903135325 | 74 | 243 | 1.0 | 3.0 | 0.00 | 0.28 | 0.24 | 94 | 1016.8 |
| 20260903135220 | 74 | 235 | 1.0 | 1.0 | 0.00 | 0.28 | 0.24 | 91 | 1016.8 |
| 20260903135116 | 74 | 235 | 2.0 | 6.0 | 0.00 | 0.28 | 0.24 | 93 | 1016.8 |
| 20260903135027 | 74 | 252 | 2.0 | 3.0 | 0.00 | 0.28 | 0.24 | 93 | 1016.9 |
| 20260903134923 | 74 | 310 | 2.0 | 4.0 | 0.00 | 0.28 | 0.24 | 93 | 1016.8 |
| 20260903134818 | 73 | 210 | 1.0 | 2.0 | 0.00 | 0.28 | 0.24 | 94 | 1016.8 |
| 20260903134730 | 73 | 207 | 1.0 | 3.0 | 0.00 | 0.28 | 0.24 | 94 | 1016.8 |
| 20260903134625 | 73 | 236 | 2.0 | 2.0 | 0.00 | 0.28 | 0.24 | 94 | 1017.0 |
| 20260903134521 | 73 | 249 | 3.0 | 4.0 | 0.00 | 0.28 | 0.24 | 94 | 1016.9 |
| 20260903134416 | 73 | 238 | 1.0 | 6.0 | 0.00 | 0.28 | 0.24 | 94 | 1016.9 |
| 20260903134348 | 73 | 194 | 1.0 | 2.0 | 0.00 | 0.28 | 0.24 | 94 | 1016.9 |
| 20260903134224 | 73 | 173 | 3.0 | 4.0 | 0.00 | 0.28 | 0.24 | 95 | 1016.9 |
| 20260903134120 | 73 | 168 | 1.0 | 4.0 | 0.00 | 0.28 | 0.24 | 95 | 1016.9 |
| 20260903134031 | 73 | 203 | 2.0 | 4.0 | 0.00 | 0.28 | 0.24 | 95 | 1016.9 |
| 20260903133946 | 73 | 240 | 2.0 | 4.0 | 0.00 | 0.28 | 0.24 | 95 | 1017.1 |
| 20260903133822 | 73 | 224 | 2.0 | 4.0 | 0.00 | 0.28 | 0.24 | 95 | 1016.9 |
| 20260903133758 | 73 | 244 | 4.0 | 7.0 | 0.00 | 0.28 | 0.24 | 96 | 1016.8 |
| 20260903133630 | 73 | 247 | 2.0 | 4.0 | 0.00 | 0.28 | 0.24 | 97 | 1016.9 |
| 20260903133525 | 72 | 242 | 2.0 | 3.0 | 0.00 | 0.28 | 0.24 | 97 | 1016.9 |
| 20260903133421 | 72 | 194 | 1.0 | 2.0 | 0.00 | 0.28 | 0.24 | 97 | 1016.8 |
| 20260903133316 | 72 | 188 | 0.0 | 2.0 | 0.00 | 0.28 | 0.24 | 97 | 1016.8 |
| 20260903133228 | 72 | 187 | 1.0 | 2.0 | 0.00 | 0.28 | 0.24 | 97 | 1016.9 |
| 20260903133124 | 72 | 204 | 1.0 | 2.0 | 0.00 | 0.28 | 0.24 | 96 | 1017.0 |
| 20260903133019 | 72 | 237 | 0.0 | 1.0 | 0.00 | 0.28 | 0.24 | 96 | 1017.0 |
| 20260903133011 | 72 | 237 | 2.0 | 2.0 | 0.00 | 0.28 | 0.24 | 97 | 1016.9 |
| 20260903132826 | 72 | 235 | 2.0 | 6.0 | 0.00 | 0.28 | 0.24 | 97 | 1017.1 |
| 20260903132722 | 72 | 238 | 2.0 | 4.0 | 0.00 | 0.28 | 0.24 | 98 | 1016.9 |
| 20260903132638 | 72 | 236 | 2.0 | 2.0 | 0.00 | 0.28 | 0.24 | 98 | 1017.2 |
| 20260903132529 | 72 | 239 | 1.0 | 3.0 | 0.00 | 0.28 | 0.24 | 98 | 1016.9 |
| 20260903132425 | 72 | 225 | 0.0 | 1.0 | 0.00 | 0.28 | 0.24 | 98 | 1016.9 |
| 20260903132320 | 71 | 225 | 1.0 | 1.0 | 0.00 | 0.28 | 0.24 | 98 | 1017.0 |
| 20260903132236 | 71 | 224 | 0.0 | 1.0 | 0.00 | 0.28 | 0.24 | 98 | 1017.0 |
| 20260903132127 | 71 | 224 | 0.0 | 1.0 | 0.00 | 0.28 | 0.24 | 98 | 1016.8 |
| 20260903132023 | 71 | 225 | 0.0 | 2.0 | 0.00 | 0.28 | 0.24 | 98 | 1016.8 |
| 20260903131919 | 71 | 223 | 0.0 | 1.0 | 0.00 | 0.28 | 0.24 | 98 | 1016.8 |
| 20260903131830 | 71 | 215 | 1.0 | 2.0 | 0.00 | 0.28 | 0.24 | 98 | 1016.9 |
| 20260903131726 | 71 | 156 | 1.0 | 2.0 | 0.00 | 0.28 | 0.24 | 98 | 1017.0 |
| 20260903131622 | 71 | 153 | 1.0 | 2.0 | 0.00 | 0.28 | 0.24 | 98 | 1016.9 |
| 20260903131517 | 71 | 154 | 1.0 | 2.0 | 0.00 | 0.28 | 0.24 | 98 | 1017.0 |
| 20260903131429 | 71 | 163 | 1.0 | 2.0 | 0.00 | 0.28 | 0.24 | 98 | 1016.9 |
| 20260903131325 | 71 | 234 | 1.0 | 2.0 | 0.00 | 0.28 | 0.24 | 98 | 1017.0 |
| 20260903131240 | 71 | 235 | 1.0 | 2.0 | 0.00 | 0.29 | 0.24 | 98 | 1017.0 |
| 20260903131147 | 71 | 234 | 1.0 | 1.0 | 0.00 | 0.29 | 0.24 | 98 | 1016.8 |
| 20260903130922 | 70 | 168 | 1.0 | 1.0 | 0.00 | 0.29 | 0.24 | 98 | 1017.0 |
| 20260903130818 | 70 | 0.0 | 0.0 | 0.00 | 0.29 | 0.24 | 98 | 1017.0 | |
| 20260903130730 | 70 | 169 | 0.0 | 1.0 | 0.00 | 0.29 | 0.24 | 98 | 1016.9 |
| 20260903130625 | 70 | 170 | 1.0 | 3.0 | 0.00 | 0.29 | 0.24 | 98 | 1016.8 |
| 20260903130521 | 70 | 175 | 1.0 | 1.0 | 0.00 | 0.29 | 0.24 | 98 | 1016.7 |
| 20260903130416 | 70 | 175 | 1.0 | 1.0 | 0.00 | 0.29 | 0.24 | 98 | 1017.0 |
| 20260903130328 | 70 | 175 | 1.0 | 2.0 | 0.00 | 0.29 | 0.24 | 98 | 1017.0 |
| 20260903130223 | 70 | 178 | 1.0 | 2.0 | 0.00 | 0.29 | 0.24 | 98 | 1017.0 |
| 20260903130119 | 70 | 183 | 1.0 | 2.0 | 0.00 | 0.29 | 0.24 | 98 | 1017.0 |
| 20260903130031 | 70 | 190 | 1.0 | 2.0 | 0.00 | 0.29 | 0.24 | 98 | 1016.8 |
| 20260903125946 | 70 | 229 | 1.0 | 2.0 | 0.00 | 0.29 | 0.24 | 98 | 1017.0 |
| 20260903125842 | 70 | 244 | 1.0 | 1.0 | 0.00 | 0.29 | 0.24 | 98 | 1017.0 |
| 20260903125716 | 70 | 244 | 1.0 | 1.0 | 0.00 | 0.29 | 0.24 | 98 | 1017.0 |
| 20260903125627 | 70 | 244 | 0.0 | 1.0 | 0.00 | 0.29 | 0.24 | 98 | 1017.0 |
| 20260903125523 | 70 | 244 | 0.0 | 1.0 | 0.00 | 0.29 | 0.24 | 98 | 1017.0 |
| 20260903125438 | 70 | 0.0 | 0.0 | 0.00 | 0.29 | 0.24 | 98 | 1017.0 | |
| 20260903125330 | 70 | 244 | 1.0 | 2.0 | 0.00 | 0.29 | 0.24 | 98 | 1016.9 |
| 20260903125226 | 70 | 245 | 0.0 | 1.0 | 0.00 | 0.29 | 0.24 | 98 | 1016.9 |
| 20260903125121 | 70 | 245 | 1.0 | 1.0 | 0.00 | 0.29 | 0.24 | 98 | 1016.9 |
| 20260903125017 | 70 | 245 | 1.0 | 1.0 | 0.00 | 0.29 | 0.24 | 98 | 1016.9 |
| 20260903124929 | 70 | 244 | 1.0 | 3.0 | 0.00 | 0.29 | 0.24 | 98 | 1017.1 |
| 20260903124844 | 70 | 237 | 1.0 | 2.0 | 0.00 | 0.29 | 0.24 | 98 | 1017.1 |
| 20260903124720 | 70 | 0.0 | 0.0 | 0.00 | 0.29 | 0.24 | 98 | 1017.1 | |
| 20260903124615 | 70 | 236 | 1.0 | 3.0 | 0.00 | 0.29 | 0.24 | 98 | 1017.0 |
| 20260903124527 | 70 | 229 | 2.0 | 3.0 | 0.00 | 0.29 | 0.24 | 99 | 1017.0 |
| 20260903124423 | 70 | 164 | 0.0 | 1.0 | 0.00 | 0.29 | 0.24 | 99 | 1016.9 |
| 20260903124318 | 70 | 162 | 0.0 | 1.0 | 0.00 | 0.29 | 0.24 | 99 | 1016.8 |
| 20260903124230 | 70 | 162 | 1.0 | 2.0 | 0.00 | 0.29 | 0.24 | 99 | 1016.9 |
| 20260903124125 | 70 | 158 | 0.0 | 1.0 | 0.00 | 0.29 | 0.24 | 99 | 1016.9 |
| 20260903124021 | 70 | 158 | 1.0 | 3.0 | 0.00 | 0.29 | 0.24 | 99 | 1016.8 |
| 20260903123916 | 70 | 174 | 1.0 | 2.0 | 0.00 | 0.30 | 0.24 | 99 | 1017.0 |
| 20260903123828 | 70 | 184 | 1.0 | 1.0 | 0.00 | 0.30 | 0.24 | 99 | 1017.0 |
| 20260903123724 | 70 | 185 | 1.0 | 2.0 | 0.00 | 0.30 | 0.24 | 99 | 1017.1 |
| 20260903123619 | 70 | 187 | 1.0 | 1.0 | 0.00 | 0.30 | 0.24 | 99 | 1017.0 |
| 20260903123531 | 70 | 187 | 1.0 | 1.0 | 0.00 | 0.30 | 0.24 | 99 | 1016.8 |
| 20260903123426 | 70 | 189 | 1.0 | 2.0 | 0.00 | 0.30 | 0.24 | 99 | 1017.1 |
| 20260903123322 | 70 | 190 | 1.0 | 2.0 | 0.00 | 0.30 | 0.24 | 99 | 1017.1 |
| 20260903123218 | 70 | 198 | 1.0 | 2.0 | 0.00 | 0.30 | 0.24 | 99 | 1016.9 |
| 20260903123129 | 70 | 202 | 1.0 | 2.0 | 0.00 | 0.30 | 0.24 | 99 | 1017.0 |
| 20260903123025 | 70 | 203 | 0.0 | 1.0 | 0.00 | 0.30 | 0.24 | 99 | 1017.0 |
| 20260903122920 | 70 | 203 | 0.0 | 1.0 | 0.00 | 0.30 | 0.24 | 99 | 1016.9 |
| 20260903122816 | 70 | 216 | 1.0 | 2.0 | 0.00 | 0.30 | 0.24 | 99 | 1016.8 |
| 20260903122727 | 70 | 241 | 0.0 | 1.0 | 0.00 | 0.30 | 0.24 | 99 | 1016.8 |
| 20260903122623 | 70 | 241 | 1.0 | 1.0 | 0.00 | 0.30 | 0.24 | 99 | 1016.8 |
| 20260903122519 | 70 | 241 | 0.0 | 1.0 | 0.00 | 0.30 | 0.24 | 99 | 1016.8 |
| 20260903122430 | 70 | 241 | 0.0 | 2.0 | 0.00 | 0.30 | 0.24 | 99 | 1016.8 |
| 20260903122326 | 70 | 241 | 0.0 | 1.0 | 0.00 | 0.30 | 0.24 | 99 | 1016.7 |
| 20260903122222 | 69 | 0.0 | 0.0 | 0.00 | 0.30 | 0.24 | 99 | 1016.8 | |
| 20260903122117 | 70 | 0.0 | 0.0 | 0.00 | 0.30 | 0.24 | 99 | 1016.8 | |
| 20260903122029 | 70 | 0.0 | 0.0 | 0.00 | 0.30 | 0.24 | 99 | 1016.8 | |
| 20260903121924 | 70 | 241 | 1.0 | 1.0 | 0.00 | 0.30 | 0.24 | 99 | 1016.8 |
| 20260903121840 | 69 | 0.0 | 0.0 | 0.00 | 0.30 | 0.24 | 99 | 1016.8 | |
| 20260903121716 | 69 | 0.0 | 0.0 | 0.00 | 0.30 | 0.24 | 99 | 1016.9 | |
| 20260903121627 | 69 | 241 | 0.0 | 1.0 | 0.00 | 0.30 | 0.24 | 99 | 1016.8 |
| 20260903121522 | 69 | 241 | 0.0 | 1.0 | 0.00 | 0.30 | 0.24 | 99 | 1016.8 |
| 20260903121418 | 69 | 241 | 1.0 | 1.0 | 0.00 | 0.30 | 0.24 | 99 | 1016.8 |
| 20260903121330 | 69 | 241 | 0.0 | 1.0 | 0.00 | 0.30 | 0.24 | 99 | 1016.7 |
| 20260903121225 | 69 | 0.0 | 0.0 | 0.00 | 0.30 | 0.24 | 99 | 1016.7 | |
| 20260903121141 | 69 | 0.0 | 0.0 | 0.00 | 0.30 | 0.24 | 99 | 1016.5 | |
| 20260903121036 | 69 | 241 | 1.0 | 1.0 | 0.00 | 0.30 | 0.24 | 99 | 1016.5 |
| 20260903120928 | 69 | 241 | 1.0 | 1.0 | 0.00 | 0.30 | 0.24 | 99 | 1016.7 |
| 20260903120824 | 69 | 0.0 | 0.0 | 0.00 | 0.30 | 0.24 | 99 | 1016.8 | |
| 20260903120739 | 69 | 241 | 0.0 | 1.0 | 0.00 | 0.30 | 0.24 | 99 | 1016.7 |
| 20260903120631 | 69 | 0.0 | 0.0 | 0.00 | 0.30 | 0.24 | 99 | 1016.6 | |
| 20260903120526 | 69 | 242 | 0.0 | 1.0 | 0.00 | 0.30 | 0.24 | 99 | 1017.0 |
| 20260903120422 | 69 | 0.0 | 0.0 | 0.00 | 0.30 | 0.24 | 99 | 1017.0 | |
| 20260903120317 | 69 | 0.0 | 0.0 | 0.00 | 0.30 | 0.24 | 99 | 1016.8 | |
| 20260903120229 | 69 | 241 | 0.0 | 1.0 | 0.00 | 0.30 | 0.24 | 99 | 1016.9 |
| 20260903120124 | 69 | 242 | 1.0 | 1.0 | 0.00 | 0.30 | 0.24 | 99 | 1016.8 |
| 20260903120020 | 69 | 242 | 1.0 | 2.0 | 0.00 | 0.30 | 0.24 | 99 | 1016.7 |
| 20260903115915 | 69 | 0.0 | 0.0 | 0.00 | 0.30 | 0.24 | 99 | 1016.9 | |
| 20260903115827 | 69 | 242 | 0.0 | 1.0 | 0.00 | 0.30 | 0.24 | 99 | 1016.8 |
| 20260903115742 | 69 | 242 | 1.0 | 2.0 | 0.00 | 0.30 | 0.24 | 99 | 1016.6 |
| 20260903115618 | 69 | 246 | 0.0 | 1.0 | 0.00 | 0.30 | 0.24 | 99 | 1016.6 |
| 20260903115530 | 69 | 246 | 1.0 | 1.0 | 0.00 | 0.30 | 0.24 | 99 | 1016.9 |
| 20260903115446 | 69 | 246 | 1.0 | 1.0 | 0.00 | 0.30 | 0.24 | 99 | 1016.9 |
| 20260903115321 | 69 | 245 | 1.0 | 2.0 | 0.00 | 0.30 | 0.24 | 99 | 1017.0 |
| 20260903115257 | 69 | 247 | 1.0 | 1.0 | 0.00 | 0.30 | 0.24 | 99 | 1017.1 |
| 20260903115128 | 69 | 247 | 1.0 | 2.0 | 0.00 | 0.30 | 0.24 | 99 | 1016.9 |
| 20260903115024 | 69 | 247 | 1.0 | 1.0 | 0.00 | 0.30 | 0.24 | 99 | 1017.2 |
| 20260903114919 | 69 | 247 | 0.0 | 1.0 | 0.00 | 0.30 | 0.24 | 99 | 1017.2 |
| 20260903114831 | 69 | 247 | 0.0 | 1.0 | 0.00 | 0.30 | 0.24 | 99 | 1017.3 |
| 20260903114726 | 69 | 247 | 1.0 | 2.0 | 0.00 | 0.30 | 0.24 | 99 | 1017.3 |
| 20260903114622 | 69 | 248 | 1.0 | 2.0 | 0.00 | 0.30 | 0.24 | 99 | 1017.3 |
| 20260903114518 | 69 | 247 | 1.0 | 2.0 | 0.00 | 0.30 | 0.24 | 99 | 1017.3 |
| 20260903114429 | 69 | 248 | 1.0 | 1.0 | 0.00 | 0.30 | 0.24 | 99 | 1017.4 |
| 20260903114324 | 69 | 248 | 1.0 | 1.0 | 0.00 | 0.30 | 0.24 | 99 | 1017.5 |
| 20260903114220 | 69 | 248 | 1.0 | 1.0 | 0.00 | 0.30 | 0.24 | 99 | 1017.6 |
| 20260903114116 | 69 | 248 | 1.0 | 1.0 | 0.00 | 0.30 | 0.24 | 99 | 1017.4 |
| 20260903114028 | 69 | 247 | 1.0 | 2.0 | 0.00 | 0.30 | 0.24 | 99 | 1017.5 |
| 20260903113923 | 69 | 247 | 1.0 | 2.0 | 0.00 | 0.30 | 0.24 | 99 | 1017.5 |
| 20260903113819 | 69 | 247 | 2.0 | 3.0 | 0.00 | 0.30 | 0.24 | 99 | 1017.5 |
| 20260903113750 | 69 | 248 | 1.0 | 2.0 | 0.00 | 0.30 | 0.24 | 99 | 1017.3 |
| 20260903113625 | 69 | 0.0 | 0.0 | 0.00 | 0.30 | 0.24 | 99 | 1017.3 | |
| 20260903113521 | 69 | 0.0 | 0.0 | 0.00 | 0.30 | 0.24 | 99 | 1017.3 | |
| 20260903113417 | 69 | 0.0 | 0.0 | 0.00 | 0.30 | 0.24 | 99 | 1017.3 | |
| 20260903113328 | 69 | 0.0 | 0.0 | 0.00 | 0.30 | 0.24 | 99 | 1017.0 | |
| 20260903113223 | 69 | 0.0 | 0.0 | 0.00 | 0.30 | 0.24 | 99 | 1017.2 | |
| 20260903113119 | 69 | 0.0 | 0.0 | 0.00 | 0.30 | 0.24 | 99 | 1017.2 | |
| 20260903113051 | 69 | 0.0 | 0.0 | 0.00 | 0.30 | 0.24 | 99 | 1017.3 | |
| 20260903112946 | 69 | 0.0 | 0.0 | 0.00 | 0.30 | 0.24 | 99 | 1017.3 | |
| 20260903112822 | 69 | 0.0 | 0.0 | 0.00 | 0.30 | 0.24 | 99 | 1017.3 | |
| 20260903112718 | 68 | 0.0 | 0.0 | 0.00 | 0.30 | 0.24 | 99 | 1017.2 | |
| 20260903112629 | 68 | 240 | 0.0 | 1.0 | 0.00 | 0.30 | 0.24 | 99 | 1017.3 |
| 20260903112525 | 68 | 240 | 0.0 | 1.0 | 0.00 | 0.30 | 0.24 | 99 | 1017.3 |
| 20260903112420 | 68 | 0.0 | 0.0 | 0.00 | 0.30 | 0.24 | 99 | 1017.1 | |
| 20260903112316 | 68 | 240 | 0.0 | 1.0 | 0.00 | 0.30 | 0.24 | 99 | 1017.2 |
| 20260903112227 | 68 | 240 | 1.0 | 1.0 | 0.00 | 0.30 | 0.24 | 99 | 1017.1 |
| 20260903112122 | 68 | 240 | 0.0 | 1.0 | 0.00 | 0.30 | 0.24 | 99 | 1017.0 |
| 20260903112018 | 68 | 240 | 0.0 | 1.0 | 0.00 | 0.30 | 0.24 | 99 | 1017.0 |
| 20260903111930 | 68 | 0.0 | 0.0 | 0.00 | 0.30 | 0.24 | 99 | 1017.2 | |
| 20260903111825 | 68 | 0.0 | 0.0 | 0.00 | 0.30 | 0.24 | 99 | 1017.2 | |
| 20260903111721 | 68 | 0.0 | 0.0 | 0.00 | 0.30 | 0.24 | 99 | 1016.9 | |
| 20260903111616 | 68 | 240 | 0.0 | 1.0 | 0.00 | 0.30 | 0.24 | 99 | 1016.9 |
| 20260903111528 | 68 | 0.0 | 0.0 | 0.00 | 0.30 | 0.24 | 99 | 1016.9 | |
| 20260903111444 | 68 | 0.0 | 0.0 | 0.00 | 0.30 | 0.24 | 99 | 1017.0 | |
| 20260903111319 | 68 | 0.0 | 0.0 | 0.00 | 0.30 | 0.24 | 99 | 1017.1 | |
| 20260903111231 | 68 | 239 | 0.0 | 1.0 | 0.00 | 0.30 | 0.24 | 99 | 1016.9 |
| 20260903111126 | 68 | 0.0 | 0.0 | 0.00 | 0.30 | 0.24 | 99 | 1017.1 | |
| 20260903111022 | 68 | 0.0 | 0.0 | 0.00 | 0.30 | 0.24 | 99 | 1017.0 | |
| 20260903110917 | 68 | 239 | 0.0 | 1.0 | 0.00 | 0.30 | 0.24 | 99 | 1016.9 |
| 20260903110828 | 68 | 239 | 0.0 | 1.0 | 0.00 | 0.30 | 0.24 | 99 | 1017.0 |
| 20260903110744 | 68 | 240 | 1.0 | 2.0 | 0.00 | 0.30 | 0.24 | 99 | 1017.1 |
| 20260903110619 | 68 | 0.0 | 0.0 | 0.00 | 0.30 | 0.24 | 99 | 1017.1 | |
| 20260903110530 | 68 | 0.0 | 0.0 | 0.00 | 0.30 | 0.24 | 99 | 1017.2 | |
| 20260903110446 | 68 | 0.0 | 0.0 | 0.00 | 0.30 | 0.24 | 99 | 1017.1 | |
| 20260903110322 | 68 | 0.0 | 0.0 | 0.00 | 0.30 | 0.24 | 99 | 1017.1 | |
| 20260903110218 | 68 | 242 | 0.0 | 1.0 | 0.00 | 0.30 | 0.24 | 99 | 1017.1 |
| 20260903110129 | 68 | 242 | 1.0 | 2.0 | 0.00 | 0.30 | 0.24 | 99 | 1017.2 |
| 20260903110024 | 68 | 243 | 2.0 | 2.0 | 0.00 | 0.30 | 0.24 | 99 | 1017.4 |
| 20260903105920 | 68 | 243 | 2.0 | 2.0 | 0.00 | 0.30 | 0.24 | 99 | 1017.3 |
| 20260903105816 | 68 | 244 | 0.0 | 2.0 | 0.00 | 0.30 | 0.24 | 99 | 1017.2 |
| 20260903105727 | 68 | 245 | 1.0 | 2.0 | 0.00 | 0.30 | 0.24 | 99 | 1017.4 |
| 20260903105623 | 68 | 237 | 1.0 | 2.0 | 0.00 | 0.30 | 0.24 | 99 | 1017.4 |
| 20260903105518 | 68 | 234 | 1.0 | 2.0 | 0.00 | 0.30 | 0.24 | 99 | 1017.4 |
| 20260903105430 | 68 | 230 | 0.0 | 1.0 | 0.00 | 0.30 | 0.24 | 99 | 1017.3 |
| 20260903105325 | 68 | 230 | 1.0 | 1.0 | 0.00 | 0.30 | 0.24 | 99 | 1017.4 |
| 20260903105221 | 68 | 230 | 1.0 | 1.0 | 0.00 | 0.30 | 0.24 | 99 | 1017.4 |
| 20260903105116 | 68 | 230 | 0.0 | 1.0 | 0.00 | 0.30 | 0.24 | 99 | 1017.5 |
| 20260903105028 | 68 | 230 | 1.0 | 2.0 | 0.00 | 0.30 | 0.24 | 99 | 1017.6 |
| 20260903104924 | 68 | 221 | 1.0 | 2.0 | 0.00 | 0.30 | 0.24 | 99 | 1017.5 |
| 20260903104819 | 68 | 203 | 1.0 | 1.0 | 0.00 | 0.30 | 0.24 | 99 | 1017.4 |
| 20260903104731 | 68 | 203 | 0.0 | 2.0 | 0.00 | 0.30 | 0.24 | 99 | 1017.5 |
| 20260903104626 | 68 | 203 | 0.0 | 1.0 | 0.00 | 0.30 | 0.24 | 99 | 1017.3 |
| 20260903104522 | 68 | 203 | 0.0 | 1.0 | 0.00 | 0.30 | 0.24 | 99 | 1017.4 |
| 20260903104417 | 68 | 203 | 1.0 | 2.0 | 0.00 | 0.30 | 0.24 | 99 | 1017.4 |
| 20260903104329 | 68 | 204 | 1.0 | 2.0 | 0.00 | 0.30 | 0.24 | 99 | 1017.4 |
| 20260903104245 | 68 | 203 | 0.0 | 1.0 | 0.00 | 0.30 | 0.24 | 99 | 1017.4 |
| 20260903104120 | 68 | 203 | 1.0 | 2.0 | 0.00 | 0.30 | 0.24 | 99 | 1017.4 |
| 20260903104016 | 68 | 203 | 1.0 | 2.0 | 0.00 | 0.30 | 0.24 | 99 | 1017.4 |
| 20260903103927 | 68 | 202 | 2.0 | 2.0 | 0.00 | 0.30 | 0.24 | 99 | 1017.3 |
| 20260903103823 | 68 | 200 | 1.0 | 2.0 | 0.00 | 0.30 | 0.24 | 99 | 1017.3 |
| 20260903103718 | 68 | 200 | 1.0 | 1.0 | 0.00 | 0.30 | 0.24 | 99 | 1017.3 |
| 20260903103630 | 68 | 0.0 | 0.0 | 0.00 | 0.30 | 0.24 | 99 | 1017.0 | |
| 20260903103526 | 68 | 0.0 | 0.0 | 0.00 | 0.30 | 0.24 | 99 | 1017.2 | |
| 20260903103441 | 68 | 0.0 | 0.0 | 0.00 | 0.30 | 0.24 | 99 | 1017.2 | |
| 20260903103317 | 68 | 0.0 | 0.0 | 0.00 | 0.30 | 0.24 | 99 | 1017.2 | |
| 20260903103228 | 68 | 0.0 | 0.0 | 0.00 | 0.30 | 0.24 | 99 | 1017.4 | |
| 20260903103144 | 68 | 201 | 0.0 | 1.0 | 0.00 | 0.30 | 0.24 | 99 | 1017.2 |
| 20260903103019 | 68 | 0.0 | 0.0 | 0.00 | 0.30 | 0.24 | 99 | 1017.2 | |
| 20260903102931 | 68 | 200 | 0.0 | 1.0 | 0.00 | 0.30 | 0.24 | 99 | 1017.2 |
| 20260903102826 | 68 | 200 | 1.0 | 1.0 | 0.00 | 0.30 | 0.24 | 99 | 1017.2 |
| 20260903102722 | 68 | 201 | 1.0 | 1.0 | 0.00 | 0.30 | 0.24 | 99 | 1017.3 |
| 20260903102618 | 68 | 200 | 0.0 | 1.0 | 0.00 | 0.30 | 0.24 | 99 | 1017.3 |
| 20260903102549 | 68 | 200 | 0.0 | 1.0 | 0.00 | 0.30 | 0.24 | 99 | 1017.3 |
| 20260903102444 | 68 | 0.0 | 0.0 | 0.00 | 0.30 | 0.24 | 99 | 1017.3 | |
| 20260903102320 | 68 | 0.0 | 0.0 | 0.00 | 0.30 | 0.24 | 99 | 1017.1 | |
| 20260903102216 | 68 | 200 | 0.0 | 1.0 | 0.00 | 0.30 | 0.24 | 99 | 1017.2 |
| 20260903102127 | 68 | 0.0 | 0.0 | 0.00 | 0.30 | 0.24 | 99 | 1017.3 | |
| 20260903102110 | 68 | 0.0 | 0.0 | 0.00 | 0.30 | 0.24 | 99 | 1017.1 | |
| 20260903102050 | 68 | 0.0 | 0.0 | 0.00 | 0.30 | 0.24 | 99 | 1016.9 | |
| 20260903101805 | 68 | 0.0 | 0.0 | 0.00 | 0.30 | 0.24 | 99 | 1017.1 | |
| 20260903101621 | 68 | 0.0 | 0.0 | 0.00 | 0.30 | 0.24 | 99 | 1017.1 | |
| 20260903101517 | 68 | 200 | 0.0 | 1.0 | 0.00 | 0.30 | 0.24 | 99 | 1017.1 |
| 20260903101428 | 68 | 198 | 1.0 | 2.0 | 0.00 | 0.30 | 0.24 | 99 | 1017.2 |
| 20260903101324 | 68 | 176 | 1.0 | 1.0 | 0.00 | 0.30 | 0.24 | 99 | 1017.3 |
| 20260903101219 | 68 | 176 | 1.0 | 2.0 | 0.00 | 0.30 | 0.24 | 99 | 1017.2 |
| 20260903101131 | 68 | 156 | 0.0 | 2.0 | 0.00 | 0.30 | 0.24 | 99 | 1017.1 |
| 20260903101026 | 68 | 0.0 | 0.0 | 0.00 | 0.30 | 0.24 | 99 | 1017.1 | |
| 20260903100921 | 68 | 154 | 0.0 | 1.0 | 0.00 | 0.30 | 0.24 | 99 | 1016.9 |
| 20260903100817 | 68 | 0.0 | 0.0 | 0.00 | 0.30 | 0.24 | 99 | 1017.2 | |
| 20260903100729 | 68 | 0.0 | 0.0 | 0.00 | 0.30 | 0.24 | 99 | 1017.0 | |
| 20260903100624 | 68 | 153 | 0.0 | 1.0 | 0.00 | 0.30 | 0.24 | 99 | 1017.0 |
| 20260903100520 | 68 | 154 | 1.0 | 1.0 | 0.00 | 0.30 | 0.24 | 99 | 1017.0 |
| 20260903100416 | 68 | 154 | 1.0 | 2.0 | 0.01 | 0.30 | 0.24 | 99 | 1016.8 |
| 20260903100327 | 68 | 154 | 0.0 | 1.0 | 0.01 | 0.30 | 0.24 | 99 | 1017.0 |
| 20260903100222 | 68 | 165 | 1.0 | 3.0 | 0.01 | 0.30 | 0.24 | 99 | 1017.1 |
| 20260903100118 | 68 | 263 | 0.0 | 1.0 | 0.01 | 0.30 | 0.24 | 99 | 1017.1 |
| 20260903100029 | 68 | 263 | 0.0 | 1.0 | 0.01 | 0.30 | 0.24 | 99 | 1017.2 |
| 20260903095925 | 68 | 263 | 0.0 | 1.0 | 0.01 | 0.30 | 0.24 | 99 | 1017.2 |
| 20260903095821 | 68 | 263 | 0.0 | 1.0 | 0.01 | 0.30 | 0.24 | 99 | 1017.2 |
| 20260903095716 | 68 | 266 | 1.0 | 2.0 | 0.01 | 0.30 | 0.24 | 99 | 1017.1 |
| 20260903095648 | 68 | 0.0 | 0.0 | 0.01 | 0.30 | 0.24 | 99 | 1017.1 | |
| 20260903095523 | 68 | 269 | 0.0 | 1.0 | 0.01 | 0.30 | 0.24 | 99 | 1017.2 |
| 20260903095419 | 68 | 269 | 0.0 | 1.0 | 0.01 | 0.30 | 0.24 | 99 | 1017.2 |
| 20260903095331 | 68 | 269 | 1.0 | 2.0 | 0.01 | 0.30 | 0.24 | 99 | 1017.3 |
| 20260903095246 | 68 | 0.0 | 0.0 | 0.01 | 0.30 | 0.24 | 99 | 1017.2 | |
| 20260903095122 | 68 | 269 | 0.0 | 1.0 | 0.01 | 0.30 | 0.24 | 99 | 1017.2 |
| 20260903095017 | 68 | 269 | 1.0 | 1.0 | 0.01 | 0.30 | 0.24 | 99 | 1017.2 |
| 20260903094929 | 68 | 269 | 0.0 | 1.0 | 0.01 | 0.30 | 0.24 | 99 | 1017.4 |
| 20260903094845 | 68 | 269 | 0.0 | 1.0 | 0.01 | 0.30 | 0.24 | 99 | 1017.3 |
| 20260903094740 | 68 | 269 | 1.0 | 1.0 | 0.01 | 0.30 | 0.24 | 99 | 1017.3 |
| 20260903094616 | 68 | 269 | 1.0 | 1.0 | 0.01 | 0.30 | 0.24 | 99 | 1017.1 |
| 20260903094527 | 68 | 264 | 1.0 | 2.0 | 0.01 | 0.30 | 0.24 | 99 | 1017.3 |
| 20260903094443 | 68 | 246 | 1.0 | 2.0 | 0.01 | 0.30 | 0.24 | 99 | 1017.4 |
| 20260903094319 | 68 | 249 | 1.0 | 3.0 | 0.01 | 0.30 | 0.24 | 99 | 1017.4 |
| 20260903094230 | 68 | 245 | 1.0 | 2.0 | 0.02 | 0.30 | 0.24 | 99 | 1017.2 |
| 20260903094126 | 68 | 248 | 2.0 | 3.0 | 0.02 | 0.30 | 0.24 | 99 | 1017.2 |
| 20260903094021 | 68 | 261 | 0.0 | 1.0 | 0.02 | 0.30 | 0.24 | 99 | 1017.2 |
| 20260903093917 | 68 | 261 | 1.0 | 1.0 | 0.02 | 0.30 | 0.24 | 99 | 1017.1 |
| 20260903093829 | 68 | 261 | 1.0 | 2.0 | 0.02 | 0.30 | 0.24 | 99 | 1017.2 |
| 20260903093724 | 68 | 254 | 2.0 | 3.0 | 0.02 | 0.30 | 0.24 | 99 | 1017.0 |
| 20260903093620 | 68 | 231 | 1.0 | 1.0 | 0.02 | 0.30 | 0.24 | 99 | 1016.9 |
| 20260903093536 | 68 | 230 | 1.0 | 3.0 | 0.02 | 0.30 | 0.24 | 99 | 1017.1 |
| 20260903093427 | 68 | 243 | 2.0 | 4.0 | 0.02 | 0.30 | 0.24 | 99 | 1016.9 |
| 20260903093343 | 68 | 227 | 0.0 | 1.0 | 0.02 | 0.30 | 0.24 | 99 | 1016.9 |
| 20260903093218 | 68 | 227 | 0.0 | 1.0 | 0.02 | 0.30 | 0.24 | 99 | 1016.6 |
| 20260903093130 | 68 | 227 | 0.0 | 1.0 | 0.02 | 0.30 | 0.24 | 99 | 1016.9 |
| 20260903093025 | 68 | 227 | 1.0 | 2.0 | 0.02 | 0.30 | 0.24 | 99 | 1016.9 |
| 20260903092921 | 68 | 226 | 1.0 | 2.0 | 0.02 | 0.30 | 0.24 | 99 | 1016.9 |
| 20260903092817 | 68 | 225 | 1.0 | 1.0 | 0.02 | 0.30 | 0.24 | 99 | 1016.8 |
| 20260903092728 | 68 | 224 | 1.0 | 2.0 | 0.02 | 0.30 | 0.24 | 99 | 1016.7 |
| 20260903092624 | 68 | 215 | 1.0 | 2.0 | 0.02 | 0.30 | 0.24 | 99 | 1016.7 |